                ,  0.675,  0.825,  0.975,  1.125,  1.275,  1.425,  1.575,  1.725,  1.875,  2.025,  2.175,  2.325,  2.475,  2.625,  2.775,  2.925,  3.075,  3.225,  3.375,  3.525,  3.675,  3.825,  3.975,  4.125,  4.275,  4.425,  4.575,  4.725,  4.875,  5.025,  5.175,  5.325,  5.475,  5.625,  5.775,  5.925,  6.075,  6.225,  6.375,  6.525,  6.675,  6.825,  6.975,  7.125,  7.275,  7.425,  7.575,  7.725,  7.875,  8.025,  8.175,  8.325,  8.475,  8.625,  8.775,  8.925,  9.075,  9.225,  9.375,  9.525,  9.675,  9.825,  9.975
2002/07/13 00:00,  999.0,    0.2,    0.2,    0.3,    0.3,    0.3,    0.3,    0.4,    0.3,    0.2,    0.2,    0.2,    0.2,    0.3,    0.3,    0.3,    0.3,    0.4,    0.4,    0.4,    0.4,    0.3,    0.4,    0.3,    0.3,    0.3,    0.2,    0.2,    0.1,   -0.1,    0.1,   -0.0,  999.0,  999.0,  999.0,   -0.6,  999.0,  999.0,   -0.3,  999.0,  999.0,  999.0,  999.0,  999.0,  999.0,  999.0,  999.0,  999.0,  999.0,  999.0,  999.0,  999.0,  999.0,  999.0,  999.0,  999.0,  999.0,  999.0,  999.0,  999.0,   -0.6,  999.0,  999.0
2002/07/13 00:10,  999.0,    0.2,    0.4,    0.1,    0.3,    0.3,    0.4,    0.4,    0.3,    0.3,    0.2,    0.1,    0.1,    0.1,    0.0,    0.1,    0.0,    0.0,    0.0,    0.1,    0.1,    0.1,    0.2,    0.1,    0.1,    0.1,    0.0,   -0.0,   -0.1,   -0.2,   -0.2,   -0.4,  999.0,  999.0,  999.0,   -0.3,  999.0,  999.0,   -0.0,  999.0,   -0.5,   -0.2,  999.0,  999.0,  999.0,  999.0,  999.0,   -0.6,  999.0,  999.0,  999.0,  999.0,  999.0,  999.0,  999.0,  999.0,  999.0,  999.0,  999.0,  999.0,  999.0,  999.0,  999.0
2002/07/13 00:20,  999.0,    0.2,    0.1,    0.0,    0.3,    0.2,    0.1,    0.2,    0.2,    0.2,    0.1,    0.1,    0.0,    0.1,    0.2,    0.2,    0.1,    0.2,    0.2,    0.2,    0.2,    0.2,    0.2,    0.2,    0.2,    0.2,    0.2,    0.1,    0.1,    0.1,    0.0,  999.0,   -0.1,  999.0,   -0.0,   -0.3,  999.0,  999.0,    0.1,  999.0,   -0.3,   -0.0,  999.0,  999.0,  999.0,  999.0,  999.0,  999.0,  999.0,  999.0,  999.0,  999.0,  999.0,  999.0,  999.0,  999.0,  999.0,  999.0,  999.0,  999.0,  999.0,  999.0,   -0.8
2002/07/13 00:30,  999.0,    0.1,   -0.1,   -0.0,    0.1,    0.3,    0.2,    0.2,    0.1,    0.1,    0.1,    0.2,    0.2,    0.3,    0.4,    0.1,    0.1,    0.2,    0.2,    0.2,    0.3,    0.3,    0.2,    0.1,   -0.0,   -0.1,   -0.2,   -0.3,   -0.4,   -0.3,   -0.5,  999.0,   -0.5,  999.0,  999.0,   -0.8,  999.0,  999.0,  999.0,  999.0,   -0.5,   -0.3,  999.0,  999.0,  999.0,  999.0,  999.0,  999.0,  999.0,  999.0,  999.0,  999.0,  999.0,  999.0,  999.0,  999.0,  999.0,  999.0,  999.0,  999.0,  999.0,   -0.4,   -0.3
2002/07/13 00:40,  999.0,   -0.0,    0.0,    0.1,    0.2,    0.2,    0.2,    0.3,    0.3,    0.3,    0.2,    0.3,    0.3,    0.3,    0.4,    0.4,    0.4,    0.3,    0.4,    0.2,    0.2,    0.1,    0.1,    0.1,    0.0,   -0.0,   -0.2,   -0.3,   -0.3,   -0.5,   -0.4,   -0.4,   -0.5,   -0.4,  999.0,   -0.4,  999.0,  999.0,   -0.1,   -0.1,  999.0,   -0.1,  999.0,  999.0,  999.0,  999.0,  999.0,  999.0,  999.0,  999.0,  999.0,  999.0,  999.0,  999.0,  999.0,  999.0,  999.0,  999.0,  999.0,  999.0,  999.0,  999.0,  999.0
2002/07/13 00:50,  999.0,    0.1,   -0.1,    0.1,    0.1,    0.3,    0.2,    0.2,    0.2,    0.2,    0.2,    0.2,    0.1,    0.1,    0.1,    0.1,    0.1,    0.2,    0.1,    0.2,    0.1,   -0.0,   -0.1,   -0.1,   -0.1,   -0.2,   -0.3,   -0.2,   -0.2,   -0.3,   -0.2,   -0.2,   -0.2,   -0.2,   -0.5,   -0.3,  999.0,  999.0,  999.0,    0.2,    0.1,  999.0,  999.0,  999.0,  999.0,  999.0,  999.0,  999.0,  999.0,   -0.6,  999.0,  999.0,  999.0,  999.0,  999.0,  999.0,  999.0,  999.0,  999.0,  999.0,  999.0,   -0.1,  999.0
2002/07/13 01:00,  999.0,   -0.2,    0.0,    0.0,    0.2,    0.2,    0.1,    0.1,    0.1,    0.1,    0.1,    0.1,    0.1,    0.2,    0.2,    0.2,    0.3,    0.3,    0.3,    0.3,    0.2,    0.2,    0.2,    0.2,    0.1,    0.1,  999.0,    0.3,  999.0,    0.3,    0.1,   -0.0,   -0.1,   -0.2,  999.0,   -0.4,  999.0,   -0.9,   -0.7,   -0.5,  999.0,  999.0,  999.0,  999.0,  999.0,  999.0,  999.0,  999.0,  999.0,  999.0,  999.0,  999.0,  999.0,  999.0,  999.0,  999.0,   -0.6,  999.0,  999.0,  999.0,  999.0,  999.0,  999.0
2002/07/13 01:10,  999.0,    0.2,    0.2,    0.2,    0.2,    0.6,    0.5,    0.5,    0.4,    0.3,    0.3,    0.3,    0.5,    0.4,    0.3,    0.3,    0.2,    0.3,    0.2,    0.2,    0.3,    0.3,    0.2,    0.2,    0.2,    0.2,    0.2,    0.2,  999.0,  999.0,   -0.1,   -0.1,   -0.1,   -0.2,   -0.3,   -0.3,  999.0,  999.0,  999.0,   -0.4,   -0.5,  999.0,  999.0,  999.0,  999.0,  999.0,  999.0,  999.0,  999.0,  999.0,  999.0,  999.0,  999.0,  999.0,  999.0,  999.0,  999.0,  999.0,  999.0,  999.0,  999.0,  999.0,  999.0
2002/07/13 01:20,  999.0,    0.1,    0.2,    0.2,    0.3,    0.4,    0.4,    0.4,    0.3,    0.2,    0.3,    0.2,    0.1,    0.1,    0.1,    0.1,   -0.0,   -0.1,   -0.0,    0.0,    0.1,  999.0,  999.0,    0.2,    0.2,    0.3,    0.3,  999.0,  999.0,    0.2,    0.2,    0.1,    0.2,   -0.0,   -0.2,   -0.2,  999.0,   -0.3,  999.0,  999.0,   -0.2,  999.0,  999.0,  999.0,  999.0,  999.0,   -0.4,   -0.0,  999.0,   -0.0,  999.0,  999.0,   -0.0,  999.0,  999.0,  999.0,  999.0,  999.0,  999.0,  999.0,   -0.1,  999.0,  999.0
2002/07/13 01:30,  999.0,   -0.0,    0.0,    0.2,    0.2,    0.3,    0.3,    0.3,    0.2,    0.3,    0.2,    0.1,    0.0,   -0.0,   -0.0,   -0.1,   -0.3,   -0.3,   -0.2,   -0.2,  999.0,    0.1,    0.1,    0.3,    0.3,    0.4,    0.3,  999.0,    0.2,    0.3,   -0.1,    0.0,   -0.0,   -0.1,    0.0,   -0.2,   -0.3,  999.0,  999.0,  999.0,   -0.4,  999.0,  999.0,  999.0,  999.0,  999.0,  999.0,  999.0,  999.0,  999.0,  999.0,  999.0,  999.0,  999.0,  999.0,  999.0,  999.0,  999.0,  999.0,  999.0,  999.0,  999.0,  999.0
2002/07/13 01:40,  999.0,   -0.1,   -0.3,    0.0,   -0.0,    0.1,    0.5,    0.4,    0.6,    0.6,    0.6,    0.5,    0.5,    0.5,    0.4,    0.3,    0.3,    0.3,    0.2,    0.2,    0.1,    0.1,   -0.0,    0.1,    0.0,    0.1,    0.2,    0.3,    0.4,  999.0,    0.3,    0.3,    0.1,    0.1,    0.1,   -0.1,   -0.2,   -0.2,   -0.2,  999.0,   -0.3,   -0.5,  999.0,  999.0,  999.0,  999.0,  999.0,  999.0,  999.0,  999.0,  999.0,  999.0,    0.1,  999.0,  999.0,  999.0,  999.0,  999.0,  999.0,  999.0,  999.0,   -0.3,    0.2
2002/07/13 01:50,  999.0,   -0.0,    0.0,    0.1,    0.1,    0.3,    0.1,    0.1,    0.2,    0.4,    0.2,    0.0,    0.1,    0.0,    0.0,    0.0,    0.1,    0.2,    0.2,    0.3,    0.2,    0.1,    0.1,    0.2,    0.2,    0.2,    0.1,    0.0,   -0.0,    0.1,    0.1,    0.1,    0.1,    0.1,    0.1,   -0.0,    0.0,   -0.2,   -0.2,  999.0,   -0.0,   -0.2,   -0.3,  999.0,  999.0,  999.0,  999.0,   -0.2,  999.0,  999.0,  999.0,    0.1,  999.0,  999.0,  999.0,  999.0,  999.0,  999.0,  999.0,  999.0,  999.0,  999.0,   -0.7
2002/07/13 02:00,  999.0,   -0.0,    0.1,    0.0,    0.1,    0.1,   -0.1,   -0.1,   -0.2,   -0.1,   -0.0,    0.1,    0.1,    0.1,    0.2,    0.1,    0.1,    0.1,    0.2,    0.1,   -0.0,   -0.1,   -0.1,   -0.2,   -0.3,   -0.0,   -0.0,    0.2,    0.1,    0.3,    0.2,    0.2,    0.1,   -0.0,   -0.1,   -0.1,   -0.0,    0.0,  999.0,  999.0,   -0.1,   -0.2,  999.0,  999.0,  999.0,  999.0,   -0.1,  999.0,  999.0,  999.0,  999.0,  999.0,  999.0,  999.0,  999.0,  999.0,  999.0,  999.0,  999.0,  999.0,  999.0,   -0.3,   -0.4
2002/07/13 02:10,  999.0,   -0.2,   -0.0,   -0.1,    0.0,   -0.1,   -0.1,   -0.2,   -0.1,   -0.1,   -0.3,   -0.0,   -0.0,   -0.7,   -0.7,   -0.9,    0.1,    0.3,    0.3,    0.3,    0.3,   -0.2,   -0.2,   -0.2,    0.1,    0.2,   -0.1,    0.2,    0.0,   -0.3,   -0.2,   -0.1,    0.0,    0.1,    0.1,    0.1,    0.2,    0.2,    0.3,    0.4,    0.0,    0.2,    0.2,  999.0,  999.0,  999.0,  999.0,  999.0,  999.0,  999.0,  999.0,  999.0,  999.0,  999.0,  999.0,  999.0,  999.0,  999.0,  999.0,  999.0,  999.0,  999.0,  999.0
2002/07/13 02:20,  999.0,    0.2,   -0.0,   -0.1,    0.0,    0.0,   -0.2,   -0.2,   -0.2,   -0.0,    0.1,    0.1,    0.1,    0.1,    0.1,    0.1,    0.0,    0.2,    0.1,    0.1,    0.0,   -0.1,   -0.2,   -0.1,   -0.0,   -0.1,   -0.3,   -0.1,   -0.0,    0.0,   -0.0,    0.0,    0.0,    0.0,    0.1,    0.0,    0.0,   -0.0,    0.0,   -0.1,  999.0,   -0.1,   -0.1,  999.0,  999.0,  999.0,  999.0,  999.0,  999.0,  999.0,  999.0,  999.0,  999.0,  999.0,  999.0,  999.0,  999.0,  999.0,  999.0,  999.0,   -1.0,   -1.0,   -1.1
2002/07/13 02:30,  999.0,    0.4,    0.1,    0.2,    0.2,    0.1,    0.2,    0.2,    0.3,    0.2,    0.2,    0.2,    0.1,    0.2,    0.1,    0.1,    0.1,    0.1,    0.1,    0.3,    0.3,    0.3,    0.2,    0.3,    0.1,    0.2,   -0.0,   -0.1,   -0.4,   -0.2,   -0.1,   -0.1,   -0.2,   -0.2,   -0.4,   -0.3,   -0.2,   -0.0,   -0.0,  999.0,  999.0,   -0.1,    0.0,  999.0,  999.0,  999.0,  999.0,    0.2,   -0.0,  999.0,  999.0,  999.0,  999.0,  999.0,  999.0,  999.0,  999.0,   -0.7,   -0.7,   -0.8,   -0.8,   -0.8,   -0.8
2002/07/13 02:40,  999.0,   -2.5,   -4.0,   -4.0,   -3.6,   -3.7,   -3.3,   -3.8,   -2.1,   -4.5,   -4.5,   -3.6,   -3.4,   -3.5,   -3.6,   -4.9,   -4.9,   -4.8,   -4.8,   -3.3,   -3.4,   -4.4,   -4.3,   -4.4,   -4.2,   -4.1,   -4.0,   -4.0,   -2.6,   -3.0,   -2.3,   -2.1,   -1.2,   -2.2,   -2.2,   -0.4,   -1.7,   -1.4,   -0.3,  999.0,  999.0,  999.0,  999.0,  999.0,  999.0,  999.0,  999.0,  999.0,  999.0,  999.0,  999.0,  999.0,  999.0,  999.0,  999.0,  999.0,  999.0,   -0.6,   -0.5,   -0.5,   -0.6,   -0.7,   -0.7
2002/07/13 02:50,  999.0,   -2.0,   -2.4,   -2.4,   -1.8,   -1.7,   -1.7,   -1.1,   -1.5,   -1.5,   -1.4,   -1.3,   -1.1,   -0.9,   -0.8,   -0.6,   -1.3,   -1.5,   -1.4,   -1.5,   -1.3,   -1.2,   -1.3,   -1.4,   -1.7,   -1.9,   -1.7,   -1.7,   -1.8,   -1.6,   -1.6,   -1.3,   -1.5,   -0.9,   -1.0,   -0.7,   -0.5,   -0.4,   -0.4,   -0.5,   -0.3,   -0.4,  999.0,  999.0,  999.0,  999.0,  999.0,  999.0,  999.0,  999.0,  999.0,  999.0,  999.0,   -1.3,   -1.3,   -1.3,   -1.4,   -1.5,   -1.4,   -1.3,   -1.3,   -1.3,   -1.3
2002/07/13 03:00,  999.0,    0.2,    0.0,    0.1,    0.2,    0.2,    0.3,    0.3,    0.3,    0.2,   -0.0,   -0.1,   -0.1,   -0.1,   -0.0,    0.0,   -0.0,   -0.1,   -0.2,   -0.2,   -0.2,   -0.1,    0.0,    0.1,    0.0,    0.2,    0.0,    0.2,    0.1,    0.2,    0.1,    0.2,    0.0,   -0.1,   -0.1,   -0.0,   -0.1,   -0.0,    0.0,   -0.0,   -0.0,    0.0,  999.0,  999.0,  999.0,  999.0,  999.0,  999.0,  999.0,  999.0,  999.0,  999.0,  999.0,   -1.4,   -1.4,   -1.4,   -1.4,   -1.4,   -1.5,   -1.6,   -1.6,   -1.5,   -1.6
2002/07/13 03:10,  999.0,   -0.9,   -0.3,   -0.8,   -0.8,   -0.9,   -0.8,   -0.8,   -0.3,   -0.2,   -0.5,   -0.3,   -0.3,    0.0,   -0.0,   -0.1,   -0.1,   -0.0,   -0.1,   -0.1,   -0.2,   -0.2,   -0.3,   -0.2,   -0.2,   -0.2,   -0.3,   -0.2,   -0.2,   -0.2,   -0.1,   -0.1,   -0.1,   -0.2,   -0.1,   -0.1,   -0.0,    0.1,    0.2,    0.2,    0.1,    0.2,    0.3,  999.0,  999.0,  999.0,  999.0,  999.0,  999.0,  999.0,  999.0,  999.0,  999.0,   -1.5,   -1.4,   -1.4,   -1.4,   -1.5,   -1.9,   -2.1,   -2.1,   -1.9,   -1.8
2002/07/13 03:20,  999.0,   -3.5,   -2.8,   -2.9,   -3.3,   -3.2,   -2.8,   -2.5,   -2.4,   -2.1,   -1.9,   -1.5,   -1.2,   -0.8,   -0.7,   -0.2,   -0.2,   -0.1,   -0.2,   -0.2,   -0.1,   -0.1,   -0.2,   -0.3,   -0.1,   -0.1,   -0.2,   -0.1,   -0.1,   -0.2,   -0.3,   -0.2,   -0.3,   -0.3,   -0.1,   -0.1,   -0.2,   -0.1,   -0.1,   -0.0,   -0.1,   -0.0,   -0.1,  999.0,  999.0,  999.0,  999.0,  999.0,  999.0,  999.0,    0.4,  999.0,  999.0,  999.0,   -1.5,   -1.6,   -1.4,   -1.3,   -1.6,   -1.5,   -1.6,   -1.6,   -1.6
2002/07/13 03:30,  999.0,   -2.2,   -2.5,   -2.3,   -2.3,   -2.1,   -2.0,   -1.9,   -1.6,   -1.7,   -1.4,   -0.9,   -0.6,   -0.5,   -0.1,   -0.0,   -0.1,   -1.3,   -0.6,   -1.2,   -1.4,   -1.3,   -1.6,   -1.5,   -1.7,   -1.0,   -1.3,   -1.6,   -1.9,   -1.3,   -1.1,   -1.0,   -0.8,   -0.5,   -0.2,   -0.2,   -0.2,   -0.2,   -0.3,   -0.4,   -0.5,   -0.5,   -0.4,   -0.6,  999.0,  999.0,  999.0,   -0.7,   -0.2,   -0.3,   -0.3,  999.0,  999.0,  999.0,  999.0,  999.0,   -1.3,   -1.4,   -1.4,   -1.4,   -1.4,   -1.4,   -1.3
2002/07/13 03:40,  999.0,   -2.3,   -2.9,   -2.3,   -2.5,   -1.9,   -2.0,   -2.0,   -1.8,   -1.8,   -1.6,   -1.3,   -0.9,   -0.5,   -0.1,   -0.0,   -0.1,   -0.1,   -0.4,   -0.4,   -0.4,   -0.4,   -0.2,   -0.1,   -0.2,   -0.3,   -0.1,   -0.1,   -0.1,   -0.2,   -0.1,   -0.1,   -0.1,   -0.0,   -0.1,   -0.1,   -0.2,   -0.1,   -0.3,   -0.3,   -0.3,   -0.3,   -0.3,   -0.5,  999.0,  999.0,  999.0,   -0.5,  999.0,  999.0,  999.0,  999.0,  999.0,  999.0,  999.0,  999.0,   -1.4,   -1.2,   -1.2,   -1.3,   -1.2,   -1.2,   -1.1
2002/07/13 03:50,  999.0,   -1.8,   -1.7,   -1.8,   -1.7,   -2.3,   -1.9,   -2.0,   -2.0,   -1.8,   -1.6,   -1.1,   -0.5,   -0.2,  999.0,   -0.0,   -0.1,   -0.2,   -0.3,   -0.4,   -0.3,   -0.3,   -0.2,   -0.3,   -0.2,   -0.2,   -0.1,   -0.1,   -0.0,  999.0,   -0.2,   -0.3,   -0.6,   -0.4,   -0.4,   -0.3,   -0.3,   -0.3,   -0.3,   -0.3,   -0.3,   -0.3,   -0.4,  999.0,  999.0,   -0.2,   -0.2,   -0.3,    0.0,  999.0,  999.0,  999.0,  999.0,  999.0,  999.0,  999.0,  999.0,    0.2,   -0.4,  999.0,  999.0,   -0.8,   -0.8
2002/07/13 04:00,  999.0,   -3.1,   -2.5,   -2.8,   -2.3,   -2.9,   -2.9,   -2.2,   -2.2,   -1.9,   -2.0,   -2.1,   -2.5,   -2.6,   -2.5,   -2.2,   -2.0,   -1.7,   -1.4,   -1.3,   -0.9,   -0.6,   -0.4,   -0.1,    0.0,    0.1,    0.0,    0.1,    0.2,    0.3,    0.1,   -0.0,   -0.3,   -0.1,    0.1,    0.1,    0.1,    0.1,    0.1,    0.2,    0.2,   -0.1,    0.2,  999.0,  999.0,  999.0,  999.0,  999.0,  999.0,  999.0,  999.0,  999.0,  999.0,  999.0,  999.0,  999.0,  999.0,  999.0,  999.0,  999.0,  999.0,  999.0,  999.0
2002/07/13 04:10,  999.0,   -6.4,   -5.9,   -7.0,   -6.6,   -6.6,   -6.0,   -5.8,   -5.6,   -5.4,   -5.0,   -4.5,   -4.1,   -4.2,   -4.5,   -4.4,   -3.8,   -3.3,   -2.6,   -2.0,   -2.8,   -1.9,   -1.4,   -1.6,   -1.2,   -0.6,   -1.0,   -0.6,   -0.3,   -0.4,   -0.2,   -0.5,   -0.1,    0.1,    0.5,    0.2,   -1.9,    0.4,   -0.7,   -0.9,   -1.4,   -0.0,    0.8,  999.0,  999.0,   -0.9,   -0.5,   -0.1,  999.0,    0.2,  999.0,  999.0,  999.0,  999.0,  999.0,  999.0,    0.2,   -0.2,  999.0,  999.0,  999.0,  999.0,  999.0
2002/07/13 04:20,  999.0,   -5.2,   -5.7,   -5.9,   -6.4,   -6.4,   -6.4,   -5.9,   -5.5,   -4.9,   -4.4,   -4.2,   -4.0,   -3.5,   -3.1,   -2.7,   -2.6,   -2.3,   -2.0,   -1.5,   -2.0,   -1.9,   -1.3,   -1.7,   -2.6,   -1.5,   -0.9,   -0.7,   -0.6,   -1.4,   -0.9,   -0.9,   -1.2,   -0.8,   -0.9,   -1.1,   -1.2,   -2.9,    0.2,   -0.8,   -0.1,    0.0,    0.1,    0.1,   -0.1,   -0.4,   -0.6,   -0.9,   -1.3,   -1.3,   -1.5,   -1.9,   -1.6,   -1.9,   -2.0,   -2.0,   -2.3,   -2.0,   -2.0,   -1.7,   -1.9,   -1.8,   -1.8
2002/07/13 04:30,  999.0,   -2.7,   -2.6,   -2.5,   -2.3,   -2.1,   -1.7,   -1.4,   -1.1,   -0.7,   -0.5,   -0.4,   -0.2,   -0.2,   -0.4,   -0.3,   -0.2,    0.1,    0.2,    0.2,    0.2,    0.1,    0.1,    0.1,    0.1,    0.1,    0.2,    0.0,    0.2,    0.3,  999.0,   -0.0,  999.0,    0.3,    0.3,    0.4,    0.4,    0.4,   -0.4,   -0.9,   -0.7,   -0.9,   -0.9,   -1.0,   -1.3,   -1.3,   -1.9,   -1.7,   -1.9,   -2.0,   -2.0,   -2.0,   -2.0,   -2.0,   -1.9,   -1.9,   -1.9,   -1.9,   -1.7,   -1.8,   -1.9,   -1.8,   -1.8
2002/07/13 04:40,  999.0,   -1.8,   -1.6,   -1.6,   -1.7,   -1.6,   -1.5,   -1.3,   -1.2,   -1.1,   -0.5,    0.0,   -1.0,   -0.5,   -1.2,   -1.8,   -1.6,   -1.9,   -1.8,   -1.8,   -2.1,   -1.9,   -1.9,   -2.1,   -2.4,   -2.7,   -3.1,   -2.5,   -2.8,   -2.7,   -2.4,   -2.4,   -2.3,   -1.5,   -1.2,   -1.9,   -1.8,   -2.1,   -2.0,   -2.0,   -1.7,   -1.6,   -1.7,   -1.7,   -1.8,   -1.8,   -1.6,   -1.6,   -1.5,   -1.5,   -1.5,   -1.4,   -1.4,   -1.4,   -1.2,   -1.2,   -1.2,   -1.2,   -1.0,   -1.2,   -1.1,   -1.2,   -1.2
2002/07/13 04:50,  999.0,   -5.6,   -6.3,   -6.4,   -6.6,   -6.7,   -5.8,   -5.5,   -5.3,   -5.6,   -6.5,   -6.6,   -6.1,   -5.6,   -6.2,   -6.2,   -6.4,   -6.2,   -6.0,   -5.9,   -5.8,   -5.6,   -5.9,   -5.9,   -5.7,   -5.5,   -4.8,   -4.3,   -4.1,   -4.5,   -4.2,   -3.5,   -2.7,   -2.2,   -1.8,   -0.7,   -0.4,   -1.1,   -0.0,   -0.4,    0.6,    0.2,   -2.5,   -1.7,   -1.3,    0.1,   -0.0,   -2.3,   -1.2,   -1.0,   -0.7,   -0.6,   -0.5,   -0.7,   -1.0,   -0.9,   -0.8,   -0.9,   -1.0,   -1.0,   -1.2,   -1.1,   -1.2
2002/07/13 05:00,  999.0,   -6.7,   -6.2,   -6.0,   -5.6,   -5.5,   -5.5,   -5.4,   -5.7,   -5.7,   -5.8,   -6.1,   -6.2,   -6.2,   -6.2,   -6.0,   -5.7,   -5.5,   -5.3,   -5.3,   -5.2,   -4.8,   -5.0,   -5.5,   -5.3,   -5.4,   -5.2,   -4.8,   -4.5,   -3.9,   -3.4,   -3.2,   -3.3,   -3.1,   -2.8,   -2.8,   -3.5,   -3.8,   -4.0,   -4.0,   -4.0,   -4.0,   -3.9,   -4.5,   -4.4,   -4.9,   -4.8,   -4.8,   -4.6,   -4.4,   -3.9,   -3.5,   -3.2,   -3.0,   -3.1,   -3.4,   -3.3,   -3.6,  999.0,  999.0,   -4.0,   -2.1,   -2.0
2002/07/13 05:10,  999.0,   -6.8,   -6.4,   -6.1,   -5.7,   -5.5,   -5.5,   -5.4,   -5.8,   -5.9,   -5.9,   -5.7,   -5.4,   -5.3,   -5.5,   -5.1,   -5.6,   -5.4,   -5.0,   -5.0,   -4.6,   -4.3,   -4.7,   -4.6,   -4.4,   -4.6,   -5.9,   -5.3,   -4.7,   -4.1,   -4.0,   -3.9,   -3.9,   -3.9,   -3.7,   -3.2,   -3.6,   -3.5,   -3.8,   -3.6,   -3.6,   -3.7,   -3.8,   -4.0,   -3.8,   -5.4,   -6.3,   -5.3,   -5.6,   -6.1,   -5.3,   -4.9,   -4.5,   -4.4,   -3.9,   -4.4,   -4.2,   -3.8,   -1.8,   -3.7,   -1.9,   -2.8,   -0.2
2002/07/13 05:20,  999.0,   -6.8,   -6.2,   -5.8,   -5.8,   -6.0,   -5.9,   -6.0,   -6.0,   -6.2,   -6.4,   -6.3,   -6.1,   -5.8,   -5.8,   -5.5,   -5.2,   -4.9,   -4.8,   -4.7,   -4.6,   -4.5,   -4.5,   -4.2,   -4.1,   -4.3,   -4.9,   -4.4,   -3.7,   -3.4,   -3.4,   -3.3,   -3.1,   -2.6,   -2.3,   -2.3,   -1.9,   -1.0,   -0.8,   -0.5,   -0.6,   -0.5,   -0.3,   -0.9,   -1.0,   -0.6,   -0.5,   -0.6,   -0.3,   -1.2,   -1.0,   -1.5,   -2.8,   -2.3,   -2.7,  999.0,   -3.7,   -2.6,   -1.9,   -2.8,   -2.8,   -2.8,   -3.4
2002/07/13 05:30,  999.0,   -4.9,   -4.7,   -4.6,   -4.4,   -4.3,   -4.5,   -4.6,   -4.7,   -4.9,   -5.2,   -5.3,   -5.5,   -5.3,   -5.4,   -5.4,   -5.3,   -5.3,   -5.3,   -5.4,   -5.5,   -5.4,   -5.4,   -5.5,   -5.4,   -5.1,   -4.9,   -4.2,   -3.4,   -3.2,   -3.2,   -3.2,   -3.0,   -2.8,   -2.4,   -2.4,   -2.4,   -2.4,   -2.5,   -2.5,   -3.0,   -3.4,   -3.3,   -3.2,   -3.6,   -3.7,   -3.7,   -3.3,   -3.1,   -2.7,   -2.5,   -2.4,   -2.4,   -2.4,   -2.5,   -2.7,   -2.9,   -2.8,   -2.8,   -2.6,   -2.4,   -2.4,   -2.5
2002/07/13 05:40,  999.0,   -4.2,   -3.7,   -3.5,   -3.7,   -4.0,   -4.1,   -4.3,   -4.6,   -4.7,   -4.7,   -4.7,   -5.0,   -5.2,   -5.2,   -5.3,   -5.5,   -5.6,   -5.6,   -5.6,   -5.6,   -5.8,   -6.0,   -5.9,   -5.8,   -5.7,   -5.6,   -5.1,   -4.5,   -4.0,   -3.9,   -3.6,   -3.3,   -3.2,   -2.9,   -2.5,   -2.2,   -1.9,   -1.7,   -1.9,   -2.2,   -2.5,   -2.5,   -2.6,   -2.7,   -2.6,   -2.4,   -2.8,   -2.4,   -2.5,   -2.5,   -2.5,   -2.5,   -3.4,   -2.5,   -2.3,   -3.3,   -2.0,   -1.6,   -1.5,   -1.0,   -1.7,   -1.8
2002/07/13 05:50,  999.0,   -4.5,   -3.9,   -3.7,   -3.5,   -3.5,   -3.5,   -3.5,   -3.6,   -3.7,   -3.7,   -3.8,   -3.6,   -3.9,   -3.7,   -3.5,   -3.5,   -3.6,   -3.5,   -3.4,   -3.1,   -3.1,   -2.6,   -2.8,   -2.8,   -3.1,   -2.4,   -2.7,   -2.4,   -2.0,   -1.6,   -1.8,   -1.8,   -1.6,   -1.5,   -1.5,   -1.6,   -1.5,   -1.3,   -1.2,   -1.0,   -0.6,   -0.5,   -0.5,   -0.4,   -0.7,   -0.4,   -0.6,   -0.5,   -0.8,   -1.6,   -1.7,   -1.8,   -1.8,   -1.8,   -1.8,   -1.7,   -1.9,   -1.9,   -1.9,   -2.1,   -2.0,   -1.9
2002/07/13 06:00,  999.0,   -5.2,   -4.4,   -4.3,   -4.7,   -4.6,   -3.8,   -4.9,   -5.0,   -4.8,   -5.1,   -5.2,   -5.5,   -5.5,   -5.0,   -5.0,   -4.8,   -5.1,   -5.5,   -5.2,   -4.8,   -4.7,   -5.5,   -5.3,   -5.0,   -4.8,   -4.7,   -4.4,   -3.7,   -2.6,   -3.8,   -3.2,   -2.7,   -2.2,   -1.9,   -1.9,   -2.1,   -2.2,   -2.4,   -2.4,   -2.2,   -2.0,   -2.7,   -2.2,   -2.1,   -2.7,   -2.4,   -3.2,   -2.8,   -2.4,   -2.5,   -2.6,   -2.3,   -2.3,   -2.5,   -2.5,   -2.4,   -2.2,   -2.0,   -2.1,   -1.8,   -1.2,   -1.0
2002/07/13 06:10,  999.0,   -6.6,   -6.4,   -6.6,   -6.6,   -6.7,   -6.7,   -6.6,   -6.6,   -6.7,   -6.9,   -7.0,   -6.7,   -6.5,   -6.6,   -6.5,   -6.6,   -6.6,   -6.7,   -6.7,   -6.8,   -6.7,   -6.5,   -6.4,   -6.4,   -6.3,   -6.2,   -6.0,   -5.6,   -5.0,   -4.7,   -4.4,   -4.5,   -4.4,   -4.8,   -4.7,   -4.7,   -4.7,   -5.1,   -4.6,   -4.3,   -4.1,   -4.6,   -4.1,   -3.5,   -3.1,   -2.2,   -2.4,   -1.8,   -1.4,   -1.0,   -0.8,   -1.3,   -1.2,   -1.0,   -1.0,   -1.0,   -0.9,   -2.0,   -1.8,   -1.3,   -1.3,   -1.3
2002/07/13 06:20,  999.0,   -4.5,   -4.5,   -4.3,   -4.4,   -4.1,   -4.2,   -4.2,   -4.2,   -4.1,   -4.1,   -4.3,   -4.2,   -4.4,   -4.1,   -4.4,   -4.1,   -4.3,   -4.0,   -3.6,   -3.4,   -3.3,   -3.1,   -3.2,   -3.2,   -3.1,   -2.7,   -2.9,   -3.0,   -2.7,   -1.8,   -0.9,   -1.1,   -0.8,   -1.2,   -1.3,   -1.3,   -1.4,   -1.4,   -1.0,   -0.9,   -1.2,   -1.4,   -1.6,   -1.7,   -1.7,   -1.6,   -1.4,   -1.2,   -1.0,   -0.9,   -0.4,   -0.6,   -0.5,   -0.3,    0.0,    0.3,    0.5,    0.9,    1.5,  999.0,  999.0,  999.0
2002/07/13 06:30,  999.0,   -7.2,   -7.4,   -7.5,   -7.6,   -7.6,   -7.7,   -7.8,   -8.0,   -8.1,   -8.1,   -8.1,   -8.0,   -7.8,   -7.6,   -7.6,   -7.3,   -6.9,   -6.2,   -5.9,   -5.3,   -4.8,   -4.9,   -4.5,   -4.3,   -4.1,   -2.8,   -3.6,   -3.0,   -1.9,   -1.5,   -2.0,   -1.9,   -2.1,   -2.3,   -1.9,   -1.4,   -1.0,   -0.6,   -0.7,   -1.3,   -0.6,   -0.9,   -2.2,   -4.3,   -2.5,   -1.9,   -1.7,   -1.2,   -1.1,   -0.8,   -0.5,   -0.2,    0.1,    1.2,    0.8,    0.4,    1.3,    1.7,    1.6,    2.0,    1.9,    1.5
2002/07/13 06:40,  999.0,   -8.4,   -8.7,   -9.0,   -9.2,   -9.2,   -9.1,   -8.9,   -8.8,   -8.9,   -8.9,   -9.1,   -8.9,   -8.8,   -8.8,   -8.7,   -8.7,   -8.5,   -8.5,   -8.3,   -8.0,   -8.1,   -7.9,   -8.1,   -8.5,   -8.6,   -7.9,   -7.8,   -8.2,   -7.6,   -7.3,   -6.7,   -6.0,   -6.0,   -5.7,   -5.7,   -6.3,   -5.5,   -5.1,   -4.8,   -3.5,   -2.0,   -2.8,   -2.3,   -0.8,   -1.0,   -0.5,    0.2,    0.4,    0.4,    0.9,    0.8,    1.1,    1.6,    2.1,    2.7,    3.4,    5.7,    3.5,    1.3,    4.1,    4.0,    4.7
2002/07/13 06:50,  999.0,   -8.3,   -8.3,   -8.3,   -8.4,   -8.3,   -8.2,   -8.2,   -8.3,   -8.2,   -8.2,   -8.2,   -8.3,   -8.3,   -8.3,   -8.3,   -8.3,   -8.2,   -8.2,   -8.2,   -8.3,   -8.5,   -8.5,   -8.8,   -8.5,   -8.8,   -8.4,   -8.0,   -8.2,   -7.7,   -7.2,   -7.1,   -6.2,   -5.4,   -4.7,   -4.3,   -3.9,   -5.0,   -5.0,   -5.0,   -5.7,   -5.4,   -5.2,   -4.2,   -4.0,   -4.4,   -3.7,   -3.1,   -2.9,   -3.2,   -2.4,   -3.2,   -3.1,   -2.2,   -2.5,   -2.3,   -2.1,   -2.5,   -1.9,   -3.2,   -1.7,   -0.5,   -0.4
2002/07/13 07:00,  999.0,   -7.1,   -6.8,   -6.8,   -6.6,   -6.8,   -6.8,   -6.6,   -6.6,   -6.5,   -6.3,   -6.1,   -6.0,   -6.1,   -6.3,   -6.5,   -6.4,   -6.8,   -6.7,   -6.8,   -7.2,   -7.1,   -6.9,   -6.9,   -6.7,   -6.4,   -6.0,   -5.8,   -5.8,   -5.1,   -4.5,   -4.4,   -4.4,   -4.8,   -4.4,   -4.3,   -3.4,   -2.8,   -2.6,   -2.1,   -1.7,   -2.3,   -1.9,   -1.6,   -1.1,   -0.4,   -0.7,   -0.9,   -0.7,   -0.1,   -0.2,   -0.1,   -0.0,   -0.2,   -0.3,   -0.6,   -0.6,   -0.4,   -0.3,  999.0,  999.0,  999.0,  999.0
2002/07/13 07:10,  999.0,   -2.3,   -2.5,   -2.6,   -4.1,   -4.4,   -4.6,   -4.0,   -3.9,   -3.8,   -3.6,   -3.3,   -3.1,   -2.9,   -3.0,   -2.9,   -3.0,   -2.7,   -2.8,   -2.7,   -2.4,   -2.2,   -2.1,   -2.3,   -2.0,   -1.7,   -1.3,   -0.9,   -0.6,   -0.5,    0.1,    1.2,    1.2,   -0.3,    0.1,   -0.0,    0.0,  999.0,   -0.2,  999.0,    0.4,   -0.4,  999.0,   -0.2,  999.0,   -0.3,   -0.2,  999.0,   -0.6,  999.0,  999.0,  999.0,  999.0,  999.0,  999.0,  999.0,    0.5,  999.0,  999.0,  999.0,  999.0,  999.0,  999.0
2002/07/13 07:20,  999.0,   -0.5,   -0.3,   -0.3,   -0.3,   -0.6,   -0.4,   -0.1,   -0.9,   -0.9,   -1.0,   -0.9,   -0.5,   -0.1,   -0.2,    0.0,   -0.0,   -0.5,   -0.5,   -0.7,   -0.7,   -0.4,   -0.1,    0.0,   -0.0,   -0.4,   -0.4,    0.0,    0.3,    0.1,    0.2,    0.3,    0.3,    0.3,    0.2,    0.1,    0.1,   -0.1,   -0.1,   -0.2,   -0.4,  999.0,  999.0,  999.0,  999.0,  999.0,  999.0,  999.0,  999.0,  999.0,  999.0,  999.0,  999.0,  999.0,  999.0,  999.0,  999.0,  999.0,  999.0,  999.0,  999.0,  999.0,  999.0
2002/07/13 07:30,  999.0,   -0.2,    0.3,    0.8,    0.7,    0.7,    0.5,    0.4,    0.3,    0.1,    0.0,    0.1,    0.1,    0.1,    0.0,   -0.1,   -0.1,   -0.4,   -0.3,   -0.2,   -0.4,    0.0,   -0.3,   -0.2,   -0.2,   -0.1,   -0.1,   -0.0,   -0.0,    0.0,    0.1,    0.0,   -0.1,   -0.0,   -0.3,   -0.4,   -0.3,   -0.2,    0.0,    0.1,  999.0,  999.0,  999.0,  999.0,  999.0,  999.0,  999.0,  999.0,  999.0,  999.0,   -0.3,  999.0,  999.0,  999.0,  999.0,  999.0,  999.0,  999.0,  999.0,  999.0,  999.0,  999.0,  999.0
2002/07/13 07:40,  999.0,   -1.7,   -1.8,   -1.7,   -1.9,   -2.1,   -2.2,   -2.4,   -1.1,   -1.3,   -1.3,   -1.2,   -1.3,   -1.8,   -1.7,   -1.5,   -0.3,   -1.3,   -1.1,   -1.2,   -1.1,   -1.3,   -1.1,   -1.3,   -1.0,   -0.9,   -0.7,   -0.3,   -0.3,   -0.0,   -0.1,  999.0,   -0.1,   -0.2,   -0.2,   -0.1,   -0.1,  999.0,  999.0,  999.0,   -0.0,  999.0,   -0.1,  999.0,  999.0,  999.0,  999.0,  999.0,  999.0,  999.0,  999.0,  999.0,  999.0,  999.0,  999.0,  999.0,  999.0,  999.0,  999.0,  999.0,  999.0,  999.0,  999.0
2002/07/13 07:50,  999.0,    0.1,    0.7,    0.7,    0.3,    0.1,   -0.0,   -0.1,   -0.0,    0.1,   -0.4,   -0.4,   -0.0,    0.0,   -0.1,    0.1,    0.0,    0.0,   -0.4,   -0.7,   -1.0,   -0.9,   -0.7,   -0.6,   -0.3,   -0.1,    0.0,   -0.0,    0.2,    0.0,  999.0,   -0.3,   -0.3,   -0.5,   -0.5,   -0.4,   -0.1,   -0.0,   -0.0,  999.0,   -0.1,    0.2,    0.1,    0.1,    0.1,    0.1,  999.0,   -0.1,  999.0,  999.0,  999.0,  999.0,  999.0,  999.0,  999.0,  999.0,  999.0,  999.0,  999.0,  999.0,  999.0,  999.0,  999.0
2002/07/13 08:00,  999.0,   -0.7,   -0.9,   -0.4,   -1.1,   -1.5,   -1.4,   -1.4,   -1.9,   -2.0,   -2.5,   -1.9,   -2.2,   -2.1,   -1.9,   -1.8,   -1.5,   -1.5,   -1.6,   -1.5,   -1.4,   -1.3,   -1.3,   -1.1,   -0.7,   -0.2,   -0.1,    0.2,    0.4,    0.1,    0.2,  999.0,   -0.5,   -0.3,   -0.3,   -0.1,    0.0,   -0.1,   -0.1,   -0.2,   -0.1,   -0.1,   -0.3,   -0.1,  999.0,   -0.1,   -0.4,  999.0,   -0.3,  999.0,   -0.1,  999.0,  999.0,  999.0,  999.0,  999.0,  999.0,  999.0,  999.0,  999.0,  999.0,  999.0,  999.0
2002/07/13 08:10,  999.0,   -0.4,   -0.0,   -0.4,   -0.4,   -0.5,   -0.5,   -0.4,   -0.5,   -0.5,   -0.7,   -0.6,   -0.7,   -0.6,   -0.7,   -1.1,   -0.6,   -0.8,   -0.9,   -1.2,   -1.1,   -1.1,   -1.2,   -1.0,   -1.1,   -0.9,   -0.6,   -0.3,   -0.1,   -0.1,   -0.2,   -0.1,  999.0,    0.2,    0.0,   -0.0,   -0.1,   -0.0,    0.0,   -0.0,    0.1,    0.1,    0.2,    0.1,    0.1,    0.1,  999.0,  999.0,  999.0,  999.0,  999.0,  999.0,  999.0,  999.0,  999.0,  999.0,  999.0,  999.0,  999.0,  999.0,  999.0,  999.0,  999.0
2002/07/13 08:20,  999.0,    0.3,    0.5,    0.6,    0.6,    0.5,    0.4,    0.5,    0.4,   -0.2,   -0.3,   -0.4,   -0.3,   -0.3,   -0.2,   -0.3,   -0.3,   -0.5,   -0.6,   -0.5,   -0.6,   -0.5,   -0.4,   -0.4,   -0.3,   -0.1,   -0.1,    0.0,   -0.1,   -0.7,   -0.2,   -0.4,   -0.2,   -0.5,   -0.5,   -0.3,   -0.4,   -0.4,   -0.1,   -0.0,    0.1,    0.1,    0.0,   -0.1,    0.0,  999.0,   -0.0,    0.0,  999.0,  999.0,  999.0,  999.0,  999.0,  999.0,  999.0,  999.0,  999.0,  999.0,  999.0,  999.0,  999.0,  999.0,  999.0
2002/07/13 08:30,  999.0,    0.8,    0.6,    0.1,    0.5,    0.3,    0.3,    0.4,    0.2,    0.2,    0.2,    0.2,    0.2,    0.2,    0.2,    0.2,    0.1,    0.2,   -0.1,    0.2,    0.0,    0.1,    0.0,    0.1,    0.1,    0.3,   -0.5,   -0.1,   -1.0,  999.0,  999.0,   -0.6,   -0.4,   -0.4,   -0.5,   -0.3,   -0.1,   -0.2,   -0.1,   -0.1,   -0.5,   -0.1,   -0.1,   -0.2,  999.0,  999.0,   -0.1,  999.0,  999.0,  999.0,  999.0,  999.0,  999.0,  999.0,  999.0,  999.0,  999.0,  999.0,  999.0,  999.0,  999.0,  999.0,  999.0
2002/07/13 08:40,  999.0,    0.7,    0.5,    0.5,    0.3,    0.3,    0.6,    0.5,    0.3,    0.3,    0.4,    0.4,    0.3,    0.3,    0.3,    0.4,    0.4,    0.4,    0.4,    0.4,    0.3,    0.2,    0.2,    0.1,    0.1,    0.2,    0.3,    0.3,    0.2,    0.1,    0.1,    0.2,    0.2,    0.1,   -0.0,    0.1,    0.1,   -0.0,  999.0,  999.0,    0.1,    0.1,    0.2,    0.3,    0.1,  999.0,    0.0,  999.0,  999.0,  999.0,  999.0,  999.0,  999.0,  999.0,  999.0,  999.0,  999.0,  999.0,  999.0,  999.0,  999.0,  999.0,  999.0
2002/07/13 08:50,  999.0,   -0.1,   -0.1,    0.1,    0.4,    0.3,    0.4,    0.4,    0.2,    0.3,    0.2,    0.2,    0.1,   -0.2,    0.1,    0.1,    0.1,    0.0,    0.3,   -0.2,    0.1,    0.2,    0.3,    0.2,    0.2,    0.3,    0.4,    0.3,    0.1,    0.3,    0.1,    0.1,    0.0,   -0.1,   -0.0,   -0.1,  999.0,    0.0,  999.0,    0.1,   -0.1,    0.2,    0.0,    0.0,    0.0,    0.1,  999.0,  999.0,  999.0,  999.0,  999.0,  999.0,  999.0,  999.0,  999.0,  999.0,  999.0,  999.0,  999.0,  999.0,  999.0,  999.0,  999.0
2002/07/13 09:00,  999.0,    0.2,   -0.3,   -0.1,    0.0,    0.2,    0.2,    0.1,    0.2,    0.1,    0.1,    0.1,    0.1,   -0.0,   -0.0,    0.0,   -0.0,    0.0,    0.2,    0.3,    0.3,    0.3,    0.2,    0.2,    0.3,  999.0,    0.0,    0.1,   -0.1,    0.2,    0.0,   -0.1,    0.0,  999.0,    0.0,    0.2,    0.2,   -0.0,   -0.0,    0.1,    0.1,   -0.1,    0.0,    0.0,  999.0,  999.0,    0.4,  999.0,  999.0,  999.0,  999.0,  999.0,  999.0,  999.0,  999.0,  999.0,  999.0,  999.0,  999.0,  999.0,  999.0,  999.0,  999.0
2002/07/13 09:10,  999.0,    0.0,   -0.6,   -0.7,   -0.1,    0.0,    0.1,    0.1,    0.1,    0.0,    0.1,    0.1,    0.2,    0.1,    0.1,    0.1,    0.1,    0.1,    0.2,    0.2,    0.0,    0.1,    0.0,    0.0,    0.0,    0.0,    0.3,    0.2,    0.1,    0.1,    0.1,    0.1,    0.1,    0.2,    0.0,   -0.0,   -0.1,    0.0,    0.0,   -0.1,   -0.1,   -0.1,   -0.1,   -0.1,    0.1,  999.0,  999.0,  999.0,  999.0,  999.0,  999.0,  999.0,  999.0,  999.0,  999.0,  999.0,  999.0,  999.0,  999.0,  999.0,  999.0,  999.0,  999.0
2002/07/13 09:20,  999.0,    0.1,   -0.3,   -0.3,   -0.1,   -0.0,   -0.1,    0.0,    0.0,   -0.1,   -0.1,   -0.1,    0.0,    0.1,    0.1,    0.1,    0.1,    0.2,    0.1,    0.0,    0.1,    0.1,   -0.0,   -0.0,    0.1,    0.0,   -0.1,   -0.1,    0.0,   -0.2,   -0.2,   -0.0,    0.2,    0.2,  999.0,  999.0,    0.2,    0.1,    0.3,    0.3,    0.2,    0.2,    0.2,    0.2,    0.2,    0.2,  999.0,  999.0,    0.2,  999.0,  999.0,  999.0,  999.0,  999.0,  999.0,  999.0,  999.0,  999.0,  999.0,  999.0,  999.0,  999.0,  999.0
2002/07/13 09:30,  999.0,   -0.2,   -0.2,   -0.0,    0.1,   -0.1,   -0.1,   -0.0,   -0.1,   -0.1,   -0.0,    0.0,    0.1,    0.1,    0.2,    0.2,    0.2,    0.1,    0.1,    0.3,    0.1,    0.0,    0.0,    0.1,    0.2,    0.9,    1.2,    1.1,    0.8,    0.9,    0.5,    0.2,    1.0,    1.1,    1.0,    0.7,    0.2,    0.3,    0.3,    0.3,   -0.0,    0.0,   -0.0,    0.0,    0.1,    0.4,    0.4,  999.0,    0.5,    0.6,  999.0,  999.0,  999.0,  999.0,  999.0,  999.0,   -0.0,  999.0,  999.0,  999.0,  999.0,  999.0,  999.0
2002/07/13 09:40,  999.0,   -0.1,   -0.6,   -0.7,   -0.7,   -0.1,   -1.0,   -0.8,    0.1,    0.2,    0.1,    0.0,   -0.1,   -0.1,   -0.2,   -0.2,   -0.1,   -1.4,   -0.1,    0.1,    0.0,   -0.1,   -1.5,    0.0,   -1.1,   -1.0,   -0.7,   -1.1,   -1.2,   -0.1,   -0.4,   -0.6,   -0.0,   -1.1,   -1.1,   -1.2,   -0.8,   -0.0,   -0.1,   -0.4,   -0.4,   -0.4,   -0.3,   -0.3,   -0.2,   -0.2,  999.0,    0.1,    0.1,  999.0,  999.0,  999.0,  999.0,  999.0,  999.0,   -0.8,   -0.5,  999.0,  999.0,  999.0,  999.0,  999.0,  999.0
2002/07/13 09:50,  999.0,   -0.3,   -0.4,   -0.2,   -0.0,   -0.1,   -0.1,   -0.1,   -0.1,   -0.1,   -0.2,   -0.2,   -0.1,   -0.1,   -0.1,   -0.1,   -0.1,   -0.0,    0.1,    0.2,    0.0,   -0.0,    0.0,   -0.0,   -0.1,   -0.1,   -0.2,   -0.1,    0.0,   -0.1,    0.0,    0.1,   -0.1,   -0.1,   -0.2,   -0.2,   -0.3,   -0.1,   -0.1,   -0.0,   -0.0,   -0.1,   -0.0,   -0.1,   -0.1,   -0.1,   -0.0,  999.0,    0.0,  999.0,  999.0,  999.0,  999.0,  999.0,  999.0,  999.0,   -0.4,   -0.4,  999.0,  999.0,  999.0,  999.0,  999.0
2002/07/13 10:00,  999.0,   -0.8,   -0.8,   -0.9,   -0.8,   -0.9,   -0.9,   -1.0,   -0.9,   -1.6,   -1.9,   -1.7,   -1.6,   -1.3,   -1.6,   -1.4,   -1.5,   -1.5,   -1.5,   -1.4,   -1.4,   -1.2,   -1.4,   -1.5,   -1.8,   -1.6,   -1.5,   -1.0,   -1.2,   -0.7,   -0.4,   -0.2,   -0.5,   -0.8,   -0.5,   -0.3,   -0.3,   -0.2,    0.0,    0.2,    0.3,    0.1,    0.2,    0.2,  999.0,    0.1,  999.0,  999.0,  999.0,  999.0,  999.0,  999.0,  999.0,  999.0,  999.0,  999.0,  999.0,    0.2,  999.0,  999.0,  999.0,  999.0,  999.0
2002/07/13 10:10,  999.0,   -0.4,   -0.2,   -0.6,   -0.3,   -0.4,   -0.4,   -0.3,   -0.3,   -0.3,   -0.4,   -0.2,   -0.2,   -0.2,   -0.2,   -0.0,    0.0,    0.0,    0.0,   -0.0,   -0.0,   -0.1,   -0.0,   -0.1,   -0.1,   -0.1,   -0.0,   -0.1,   -0.2,   -0.1,   -0.1,   -0.0,   -0.1,   -0.1,    0.1,   -0.1,   -0.1,   -0.1,   -0.0,    0.1,    0.0,    0.0,   -0.0,   -0.3,    0.2,    0.2,    0.2,  999.0,    0.3,  999.0,  999.0,  999.0,  999.0,  999.0,  999.0,  999.0,  999.0,   -0.2,  999.0,  999.0,  999.0,  999.0,  999.0
2002/07/13 10:20,  999.0,   -0.3,   -0.0,   -0.3,   -0.2,    0.2,    0.0,    0.0,    0.0,   -0.0,   -0.2,   -0.2,   -0.3,   -0.3,   -0.4,   -0.4,   -0.3,   -0.4,   -0.3,   -0.3,   -0.2,   -0.2,   -0.2,   -0.3,   -0.3,   -0.3,   -0.2,   -0.3,   -0.4,   -0.2,   -0.3,   -0.1,   -0.2,  999.0,  999.0,   -0.1,   -0.1,   -0.1,    0.0,    0.1,    0.1,    0.0,  999.0,  999.0,    0.1,   -0.1,   -0.0,    0.0,  999.0,  999.0,  999.0,   -0.0,  999.0,  999.0,  999.0,  999.0,  999.0,  999.0,  999.0,  999.0,  999.0,  999.0,  999.0
2002/07/13 10:30,  999.0,   -0.1,   -0.2,   -0.3,   -0.3,   -0.0,    0.0,    0.0,   -0.0,   -0.0,   -0.1,   -0.1,   -0.1,   -0.2,   -0.2,   -0.3,   -0.2,   -0.2,   -0.3,   -0.4,   -0.3,   -0.3,   -0.1,   -0.1,   -0.1,   -0.2,   -0.1,   -0.1,   -0.1,   -0.1,   -0.2,   -0.3,   -0.1,    0.0,   -0.1,  999.0,   -0.0,    0.1,    0.2,  999.0,    0.4,  999.0,    0.4,    0.5,    0.4,    0.5,    0.5,    0.5,  999.0,  999.0,  999.0,  999.0,  999.0,  999.0,  999.0,  999.0,  999.0,  999.0,  999.0,  999.0,  999.0,  999.0,  999.0
2002/07/13 10:40,  999.0,   -1.0,   -1.2,   -1.1,   -2.0,   -1.9,   -1.0,   -0.4,   -0.4,   -1.5,   -0.9,   -1.8,   -1.4,   -1.4,   -1.0,   -0.9,   -1.6,   -1.5,   -1.8,   -1.9,   -1.9,   -1.7,   -1.6,   -1.8,   -1.7,   -2.1,   -1.6,   -1.5,   -1.4,   -1.1,   -1.0,   -0.8,   -0.8,   -0.2,   -0.3,   -0.1,   -0.0,    0.1,    0.7,    0.0,  999.0,    0.1,    0.2,    0.3,    0.5,    0.2,   -0.1,  999.0,  999.0,  999.0,  999.0,  999.0,  999.0,  999.0,  999.0,  999.0,  999.0,  999.0,  999.0,  999.0,  999.0,  999.0,  999.0
2002/07/13 10:50,  999.0,    0.2,    0.1,    0.3,    0.2,    0.2,    0.1,    0.2,    0.1,    0.1,    0.1,    0.0,    0.1,    0.1,    0.2,    0.0,    0.0,    0.0,   -0.3,   -0.1,   -0.3,   -0.2,   -0.4,   -0.1,  999.0,    0.0,    0.1,    0.1,    0.0,    0.1,   -0.0,    0.1,    0.2,    0.2,    0.3,  999.0,    0.4,    0.3,  999.0,  999.0,    0.2,    0.3,    0.5,    0.3,    0.3,    0.0,  999.0,  999.0,  999.0,  999.0,  999.0,  999.0,  999.0,    0.4,  999.0,  999.0,  999.0,  999.0,  999.0,  999.0,  999.0,  999.0,  999.0
2002/07/13 11:00,  999.0,   -0.2,   -0.3,   -0.5,   -0.4,   -0.2,   -0.1,   -0.1,   -0.3,   -0.1,   -0.0,   -0.3,   -0.0,   -0.0,    0.1,    0.2,    0.0,    0.1,    0.0,    0.0,   -0.1,    0.1,    0.2,   -0.0,    0.3,    0.1,    0.1,    0.3,    0.2,    0.3,    0.2,    0.3,    0.3,    0.1,    0.3,  999.0,    0.3,    0.5,  999.0,    0.5,    0.9,    0.7,    0.6,    0.7,    0.7,    0.4,  999.0,  999.0,  999.0,  999.0,  999.0,  999.0,  999.0,  999.0,  999.0,  999.0,  999.0,  999.0,  999.0,  999.0,  999.0,  999.0,  999.0
2002/07/13 11:10,  999.0,    0.0,   -0.1,   -0.1,   -0.3,   -0.1,    0.0,   -0.1,   -0.1,    0.1,   -0.0,    0.2,    0.3,    0.3,    0.3,    0.3,    0.3,    0.3,    0.3,    0.3,    0.3,    0.3,    0.3,    0.2,    0.2,    0.1,    0.2,    0.4,    0.3,    0.3,    0.4,    0.4,    0.3,    0.3,    0.4,  999.0,    0.4,    0.6,    0.7,    0.7,    0.6,    0.6,    0.4,    0.3,    0.4,  999.0,  999.0,  999.0,  999.0,  999.0,  999.0,  999.0,  999.0,  999.0,  999.0,  999.0,  999.0,  999.0,  999.0,  999.0,  999.0,  999.0,    0.9
2002/07/13 11:20,  999.0,   -0.1,    0.1,   -0.1,   -0.6,   -0.6,   -0.3,    0.0,   -0.4,   -1.1,   -0.3,   -0.2,   -0.2,    0.1,   -0.1,    0.1,   -0.1,   -0.1,   -0.1,   -0.2,   -0.2,    0.1,   -0.1,   -0.2,   -0.0,   -0.1,   -0.0,   -0.1,   -0.3,    0.0,   -0.1,   -0.2,   -0.3,   -0.0,    0.1,    0.3,    0.5,    0.4,    0.2,    0.2,    0.2,    0.2,  999.0,    0.2,    0.2,  999.0,  999.0,  999.0,  999.0,  999.0,  999.0,  999.0,  999.0,  999.0,  999.0,  999.0,  999.0,  999.0,  999.0,  999.0,  999.0,  999.0,  999.0
2002/07/13 11:30,  999.0,   -0.9,   -1.5,   -1.2,   -1.1,   -1.1,   -0.8,   -0.8,   -1.0,   -0.7,   -0.7,   -0.6,   -0.5,   -0.5,   -0.5,   -0.6,   -0.6,   -0.8,   -0.8,   -1.3,   -1.3,   -1.3,   -1.3,   -1.3,   -1.0,   -1.3,   -1.1,   -1.2,   -1.0,   -0.9,   -0.7,   -0.7,   -0.3,   -0.1,   -0.0,    0.0,    0.0,    0.2,    0.2,    0.1,    0.1,    0.1,  999.0,  999.0,  999.0,  999.0,  999.0,  999.0,  999.0,  999.0,  999.0,  999.0,  999.0,  999.0,  999.0,  999.0,  999.0,  999.0,  999.0,  999.0,  999.0,  999.0,  999.0
2002/07/13 11:40,  999.0,   -0.9,   -0.7,   -1.4,   -1.0,   -0.8,   -1.0,   -1.1,   -1.0,   -0.8,   -0.7,   -0.5,   -0.6,   -0.7,   -0.7,   -1.4,   -1.5,   -1.3,   -1.0,   -1.1,   -1.2,   -1.3,   -1.1,   -1.1,   -1.0,   -0.9,   -0.8,   -0.8,   -0.6,   -0.4,   -0.2,   -0.1,    0.2,    0.2,  999.0,  999.0,  999.0,   -0.1,   -0.0,  999.0,    0.3,  999.0,  999.0,  999.0,  999.0,  999.0,  999.0,  999.0,  999.0,  999.0,  999.0,    1.9,  999.0,  999.0,  999.0,  999.0,  999.0,  999.0,  999.0,  999.0,  999.0,  999.0,  999.0
2002/07/13 11:50,  999.0,   -0.1,    0.1,   -0.5,   -0.8,   -0.7,   -0.4,   -0.2,   -0.1,   -0.0,   -0.0,    0.1,    0.0,    0.0,    0.0,    0.0,    0.1,    0.1,    0.3,    0.2,    0.3,    0.3,    0.2,    0.1,    0.3,    0.3,    0.2,    0.1,    0.1,    0.1,    0.2,    0.3,    0.5,  999.0,  999.0,  999.0,  999.0,  999.0,    0.0,  999.0,   -0.0,  999.0,  999.0,  999.0,  999.0,  999.0,  999.0,  999.0,   -0.1,  999.0,  999.0,  999.0,  999.0,  999.0,  999.0,  999.0,  999.0,  999.0,  999.0,  999.0,  999.0,  999.0,  999.0
2002/07/13 12:00,  999.0,    0.2,   -0.2,   -0.7,   -0.9,   -0.8,   -0.4,   -0.2,   -0.1,    0.1,    0.2,    0.2,    0.2,    0.2,    0.2,    0.2,    0.1,    0.2,    0.1,    0.1,    0.1,    0.1,    0.1,    0.0,   -0.0,   -0.2,   -0.2,   -0.1,   -0.1,   -0.1,  999.0,   -0.1,  999.0,   -0.2,  999.0,  999.0,  999.0,   -0.2,   -0.3,   -0.3,  999.0,  999.0,  999.0,  999.0,  999.0,  999.0,  999.0,   -0.3,  999.0,  999.0,  999.0,  999.0,  999.0,  999.0,  999.0,  999.0,  999.0,  999.0,  999.0,  999.0,  999.0,  999.0,  999.0
2002/07/13 12:10,  999.0,   -0.0,    0.6,    0.5,   -0.3,   -0.1,    0.1,   -0.2,   -0.4,   -0.3,   -0.2,   -0.2,    0.0,    0.3,    0.1,    0.3,    0.2,    0.2,    0.2,    0.1,    0.1,    0.2,    0.1,    0.1,    0.2,    0.1,   -0.1,   -0.0,   -0.1,    0.0,    0.2,    0.1,  999.0,  999.0,  999.0,  999.0,    0.4,    0.4,    0.3,    0.2,   -0.1,  999.0,  999.0,  999.0,  999.0,  999.0,  999.0,  999.0,    0.1,  999.0,  999.0,  999.0,  999.0,  999.0,  999.0,  999.0,  999.0,   -0.1,  999.0,  999.0,  999.0,  999.0,  999.0
2002/07/13 12:20,  999.0,    0.3,    0.3,   -0.7,   -0.1,   -0.1,    0.3,    0.5,    0.8,    0.8,    0.9,    0.8,    0.8,    0.7,    0.7,    0.6,    0.6,    0.5,    0.4,    0.3,    0.2,    0.1,   -0.1,   -0.1,   -0.2,   -0.2,    0.0,    0.0,   -0.1,   -0.2,   -0.2,    0.0,   -0.1,    0.3,  999.0,    0.4,   -0.1,   -0.1,   -0.4,   -0.4,   -0.3,   -0.2,  999.0,  999.0,  999.0,  999.0,  999.0,  999.0,   -0.1,  999.0,  999.0,  999.0,  999.0,  999.0,  999.0,  999.0,  999.0,  999.0,  999.0,  999.0,  999.0,  999.0,  999.0
2002/07/13 12:30,  999.0,    0.1,   -0.2,   -0.5,   -0.4,   -0.6,    0.2,    0.8,    0.6,    0.8,    0.8,    1.0,    0.9,    0.9,    0.9,    0.9,    0.8,    0.8,    0.7,    0.8,    0.5,    0.6,    0.5,    0.3,    0.1,   -0.1,   -0.2,   -0.2,   -0.0,   -0.4,  999.0,   -0.1,   -0.1,    0.4,  999.0,  999.0,    0.3,    0.1,  999.0,  999.0,    0.1,  999.0,  999.0,  999.0,  999.0,  999.0,  999.0,  999.0,  999.0,  999.0,  999.0,  999.0,  999.0,  999.0,  999.0,  999.0,  999.0,  999.0,  999.0,  999.0,  999.0,  999.0,  999.0
2002/07/13 12:40,  999.0,    0.1,    1.0,    0.4,   -0.2,   -0.0,    0.0,    0.7,    0.8,    0.7,    0.6,    0.5,    0.5,    0.6,    0.6,    0.7,    0.8,    0.5,    0.6,    0.8,    0.8,    0.9,    0.9,    1.0,    0.6,    0.7,    0.5,    0.4,    0.3,    0.2,    0.2,  999.0,    0.1,    0.1,  999.0,   -0.2,  999.0,    0.1,  999.0,    0.1,   -0.1,  999.0,    0.7,  999.0,  999.0,  999.0,  999.0,  999.0,  999.0,  999.0,  999.0,  999.0,  999.0,  999.0,  999.0,  999.0,  999.0,  999.0,  999.0,  999.0,  999.0,  999.0,  999.0
2002/07/13 12:50,  999.0,   -0.4,   -1.0,   -0.7,   -0.9,   -0.6,   -0.2,    0.1,    0.1,    0.4,    0.3,    0.3,    0.4,    0.5,    0.2,    0.5,    0.3,    0.3,    0.5,    0.4,    0.4,    0.4,    0.4,    0.4,    0.3,    0.3,   -0.1,   -0.0,   -0.1,   -0.2,   -0.0,    0.2,    0.2,    0.3,    0.1,    0.5,  999.0,  999.0,  999.0,   -0.1,    0.3,    0.1,  999.0,    0.1,   -0.0,  999.0,  999.0,  999.0,  999.0,  999.0,  999.0,  999.0,  999.0,  999.0,  999.0,  999.0,  999.0,  999.0,  999.0,  999.0,  999.0,  999.0,  999.0
2002/07/13 13:00,  999.0,   -0.2,   -0.3,   -1.0,   -0.8,   -0.8,   -1.0,   -1.0,   -0.7,   -0.5,   -0.9,   -1.0,   -0.1,    0.1,   -0.0,    0.1,    0.1,   -0.0,   -0.1,    0.1,    0.3,    0.2,    0.1,    0.2,    0.4,    0.2,    0.3,    0.3,    0.2,    0.2,    0.1,    0.2,    0.2,    0.2,    0.1,  999.0,   -0.2,  999.0,  999.0,  999.0,   -0.1,    0.0,   -0.1,    0.0,   -0.1,  999.0,  999.0,  999.0,  999.0,  999.0,  999.0,  999.0,  999.0,  999.0,  999.0,  999.0,  999.0,  999.0,  999.0,  999.0,  999.0,  999.0,  999.0
2002/07/13 13:10,  999.0,   -0.3,   -0.5,   -0.7,   -0.5,   -0.8,   -0.6,   -0.4,   -0.6,   -0.3,   -0.1,   -0.0,   -0.1,   -0.3,   -0.3,   -0.1,   -0.1,   -0.0,    0.2,    0.3,    0.2,    0.0,    0.1,    0.2,    0.2,   -0.2,   -0.2,   -0.2,   -0.2,   -0.0,   -0.1,   -0.2,   -0.1,   -0.1,    0.1,    0.2,    0.4,  999.0,  999.0,  999.0,    0.2,    0.2,    0.4,    0.0,   -0.1,   -0.0,  999.0,  999.0,  999.0,  999.0,  999.0,  999.0,  999.0,  999.0,   -0.1,  999.0,  999.0,  999.0,  999.0,  999.0,  999.0,  999.0,  999.0
2002/07/13 13:20,  999.0,   -0.3,   -0.3,   -0.6,   -0.3,   -0.5,   -0.5,   -0.3,   -0.3,   -0.2,   -0.5,   -0.2,   -0.5,   -0.8,   -0.3,   -0.2,   -0.9,   -1.0,   -1.5,   -1.1,   -1.1,   -1.3,   -2.0,   -2.2,   -2.2,   -2.4,   -2.1,   -2.1,   -2.2,   -2.2,   -2.1,   -2.0,   -1.7,   -1.2,   -1.0,   -0.6,   -0.3,   -1.0,   -1.5,   -0.8,   -0.1,   -0.1,   -0.5,    0.0,   -0.1,   -0.3,  999.0,  999.0,  999.0,  999.0,  999.0,  999.0,  999.0,  999.0,  999.0,  999.0,  999.0,  999.0,  999.0,  999.0,  999.0,  999.0,  999.0
2002/07/13 13:30,  999.0,   -0.3,   -0.5,   -0.7,   -0.4,   -0.4,   -0.3,   -0.2,   -0.1,   -0.2,    0.0,    0.0,    0.0,    0.1,    0.1,    0.1,    0.1,   -0.0,   -0.0,   -0.7,   -1.0,   -1.0,   -1.5,   -1.4,   -2.1,   -2.1,   -2.2,   -2.1,   -2.6,   -2.5,   -1.9,   -1.3,   -1.3,   -1.2,   -0.8,   -0.8,   -0.7,   -0.4,   -0.4,  999.0,   -0.0,    0.1,    0.1,   -0.0,   -0.1,  999.0,   -0.4,  999.0,  999.0,  999.0,  999.0,  999.0,  999.0,  999.0,  999.0,  999.0,  999.0,  999.0,  999.0,    0.2,  999.0,  999.0,  999.0
2002/07/13 13:40,  999.0,   -0.4,   -0.4,   -0.4,   -0.2,   -0.1,   -0.0,    0.0,    0.0,   -0.0,    0.1,    0.1,    0.1,    0.2,    0.2,    0.2,    0.3,    0.2,    0.2,    0.3,    0.1,    0.0,    0.0,   -0.6,   -0.6,   -0.7,   -0.9,   -1.1,   -0.7,   -0.6,   -0.4,   -0.5,   -0.3,   -0.1,    0.1,    0.5,    0.5,    0.4,    0.3,    0.1,   -0.2,   -0.2,   -0.3,   -0.0,   -0.1,   -0.9,   -0.5,  999.0,  999.0,  999.0,  999.0,  999.0,  999.0,   -0.1,  999.0,  999.0,  999.0,  999.0,  999.0,  999.0,  999.0,  999.0,  999.0
2002/07/13 13:50,  999.0,   -0.1,   -0.5,   -0.5,   -0.1,   -0.1,   -0.2,   -0.3,   -0.2,   -0.1,   -0.0,    0.0,    0.0,    0.0,   -0.1,   -0.1,   -0.1,   -0.1,   -0.1,   -0.1,   -0.1,   -0.1,   -0.1,   -0.1,   -0.1,   -0.3,   -0.2,   -0.2,   -0.2,    0.0,   -0.0,    0.2,    0.2,    0.2,    0.1,    0.1,    0.2,    0.1,   -0.2,   -0.3,  999.0,   -0.6,   -0.2,  999.0,  999.0,   -0.6,  999.0,  999.0,  999.0,  999.0,  999.0,  999.0,  999.0,  999.0,  999.0,  999.0,  999.0,  999.0,  999.0,  999.0,  999.0,  999.0,  999.0
2002/07/13 14:00,  999.0,   -1.3,   -1.6,   -1.4,   -1.3,   -1.1,   -0.6,   -1.0,   -1.0,   -1.0,   -0.9,   -0.9,   -0.8,   -0.6,   -0.6,   -0.6,   -0.7,   -1.2,   -1.3,   -2.1,   -1.5,   -2.1,   -1.9,   -2.4,   -2.5,   -2.6,   -2.4,   -2.4,   -2.9,   -2.7,   -1.7,   -1.2,   -1.1,   -1.2,   -0.9,   -0.7,   -0.8,   -0.6,   -0.6,   -0.9,   -1.3,   -1.1,   -1.2,  999.0,   -0.9,   -0.9,   -0.9,   -1.2,   -1.0,   -1.5,   -1.4,   -1.8,  999.0,  999.0,  999.0,  999.0,  999.0,  999.0,  999.0,  999.0,  999.0,  999.0,  999.0
2002/07/13 14:10,  999.0,   -0.0,   -1.2,   -1.0,   -0.8,   -0.5,   -0.4,   -0.3,   -0.3,   -0.2,   -0.1,    0.0,    0.1,    0.2,    0.1,    0.2,    0.2,    0.3,    0.2,    0.3,    0.3,    0.3,    0.3,    0.2,    0.2,    0.2,    0.3,    0.2,    0.2,  999.0,    0.2,    0.3,    0.2,    0.1,   -0.1,   -0.3,   -0.4,   -0.3,   -0.3,   -0.2,   -0.2,  999.0,  999.0,  999.0,   -0.5,   -0.6,  999.0,  999.0,  999.0,  999.0,  999.0,  999.0,  999.0,  999.0,  999.0,  999.0,  999.0,  999.0,  999.0,  999.0,  999.0,  999.0,  999.0
2002/07/13 14:20,  999.0,   -0.2,   -0.9,   -0.9,   -0.4,   -0.3,   -0.2,   -0.2,   -0.2,   -0.2,   -0.2,   -0.3,   -0.3,   -0.3,   -0.2,   -0.2,   -0.2,   -0.2,   -0.1,   -0.1,   -0.2,   -0.1,   -0.0,    0.0,    0.1,    0.1,    0.0,    0.1,    0.1,   -0.1,    0.1,   -0.1,   -0.2,   -0.1,   -0.2,   -0.3,   -0.2,   -0.2,   -0.2,   -0.3,   -0.4,   -0.1,   -0.3,  999.0,   -0.3,   -0.3,  999.0,  999.0,  999.0,  999.0,  999.0,  999.0,  999.0,  999.0,  999.0,  999.0,  999.0,  999.0,  999.0,  999.0,  999.0,  999.0,  999.0
2002/07/13 14:30,  999.0,   -0.9,   -1.2,   -0.7,   -0.5,   -0.5,   -0.4,   -0.4,   -0.4,   -0.2,   -0.3,   -0.4,   -0.3,   -0.3,   -0.3,   -0.2,   -0.2,   -0.2,   -0.0,    0.1,    0.1,    0.1,    0.2,    0.2,    0.2,    0.2,    0.2,    0.2,    0.2,    0.1,   -0.1,    0.2,    0.2,   -0.0,   -0.3,   -0.4,   -0.3,   -0.4,   -0.1,   -0.2,   -0.2,    0.0,   -0.2,   -0.5,   -0.5,   -0.3,  999.0,  999.0,  999.0,  999.0,  999.0,  999.0,  999.0,  999.0,  999.0,  999.0,  999.0,  999.0,  999.0,  999.0,  999.0,  999.0,  999.0
2002/07/13 14:40,  999.0,   -0.1,   -0.3,   -0.7,   -0.8,   -0.8,   -0.7,   -0.7,   -0.8,   -0.8,   -0.8,   -0.7,   -1.0,   -1.1,   -0.9,   -0.5,   -0.2,   -0.0,    0.1,    0.2,    0.2,    0.2,    0.2,    0.1,   -0.0,   -0.0,   -0.2,   -0.2,   -0.4,   -0.7,   -0.6,   -0.4,   -0.4,   -0.4,   -0.4,   -0.6,   -0.6,   -0.4,   -0.3,   -0.1,   -0.1,   -0.2,   -0.3,   -0.3,   -0.2,   -0.2,   -0.3,   -0.3,   -0.3,   -0.3,   -0.1,  999.0,  999.0,  999.0,  999.0,  999.0,  999.0,  999.0,  999.0,  999.0,  999.0,  999.0,  999.0
2002/07/13 14:50,  999.0,   -0.5,   -0.5,   -0.4,   -0.6,   -0.8,   -0.6,   -0.7,   -0.7,   -0.8,   -0.8,   -0.8,   -0.7,   -0.6,   -0.6,   -0.6,   -0.5,   -0.4,   -0.3,   -0.6,   -1.6,   -1.3,   -1.4,   -1.4,   -1.2,   -0.8,   -0.9,   -1.2,   -1.2,   -1.5,   -1.5,   -1.4,   -1.1,   -1.2,   -1.0,   -1.1,   -0.7,   -0.5,   -0.3,   -0.8,   -1.7,   -1.8,   -1.5,   -1.7,   -1.8,   -1.6,   -1.8,   -1.6,   -1.4,   -1.2,   -1.0,   -1.1,   -0.9,  999.0,  999.0,  999.0,  999.0,  999.0,  999.0,  999.0,  999.0,  999.0,  999.0
2002/07/13 15:00,  999.0,   -0.1,   -1.0,   -0.9,   -0.8,   -0.7,   -0.7,   -0.9,   -0.8,   -0.8,   -0.7,   -0.8,   -0.6,   -0.5,   -0.5,   -0.4,   -0.3,   -0.2,   -0.0,    0.0,   -0.2,   -0.2,   -0.6,   -0.8,   -0.9,   -1.0,   -1.6,   -1.3,   -1.3,   -2.0,   -1.9,   -1.6,   -1.7,   -2.4,   -2.3,   -1.9,   -1.6,   -1.3,   -1.4,   -1.2,   -1.2,   -1.4,   -1.6,   -1.4,   -1.3,   -1.3,   -1.2,   -1.1,   -1.0,   -0.9,   -0.8,   -0.7,   -1.1,   -0.7,   -0.6,   -0.5,  999.0,  999.0,  999.0,  999.0,  999.0,  999.0,  999.0
2002/07/13 15:10,  999.0,    0.0,   -0.7,   -0.6,   -0.6,   -0.7,   -0.8,   -0.8,   -0.9,   -0.8,   -0.6,   -0.6,   -0.5,   -0.5,   -0.5,   -0.4,   -0.4,   -0.3,   -0.2,   -0.1,    0.0,    0.1,    0.2,    0.1,    0.1,    0.1,    0.0,   -0.0,   -0.2,   -0.2,    0.0,   -0.1,    0.2,   -0.2,   -0.1,   -0.3,   -0.1,   -0.3,   -0.1,   -0.1,   -0.1,    0.1,   -0.1,   -0.2,   -0.5,   -0.5,   -0.6,   -0.7,   -0.6,   -0.3,   -0.2,  999.0,  999.0,   -0.2,   -0.1,  999.0,  999.0,  999.0,  999.0,  999.0,  999.0,  999.0,  999.0
2002/07/13 15:20,  999.0,    0.1,   -0.9,   -0.7,   -0.8,   -0.7,   -0.6,   -0.8,   -0.8,   -0.6,   -0.5,   -0.5,   -0.4,   -0.4,   -0.3,   -0.3,   -0.3,   -0.3,   -0.3,   -0.5,   -1.0,   -1.0,   -0.9,   -0.7,   -0.8,   -0.6,   -1.0,   -1.8,   -1.0,   -0.8,   -1.1,   -0.8,   -0.5,   -0.4,   -0.3,   -0.2,   -0.1,   -0.6,   -0.8,   -1.0,   -1.1,   -0.8,   -0.9,   -1.2,   -1.1,   -1.0,   -0.8,   -0.9,   -0.9,   -0.6,   -0.5,   -0.5,   -0.4,  999.0,   -0.2,  999.0,  999.0,  999.0,  999.0,  999.0,  999.0,  999.0,  999.0
2002/07/13 15:30,  999.0,   -2.0,   -2.4,   -2.2,   -2.2,   -2.3,   -2.4,   -2.4,   -2.8,   -2.2,   -2.1,   -2.6,   -2.7,   -2.3,   -2.6,   -2.3,   -2.3,   -2.1,   -2.0,   -1.7,   -1.7,   -2.0,   -1.9,   -1.8,   -1.9,   -2.7,   -1.5,   -2.0,   -2.4,   -1.7,   -0.7,   -1.2,   -1.7,   -2.1,   -1.5,   -1.8,   -2.1,   -2.1,   -2.0,   -1.9,   -1.8,   -1.5,   -1.7,   -2.0,   -2.1,   -2.1,   -1.8,   -1.7,   -1.7,   -1.5,   -1.1,   -1.1,   -1.2,   -1.3,   -0.9,   -0.5,   -0.2,  999.0,  999.0,  999.0,  999.0,  999.0,  999.0
2002/07/13 15:40,  999.0,   -0.3,   -0.8,   -0.4,   -0.4,   -0.3,   -0.4,   -0.4,   -0.3,   -0.2,   -0.4,   -0.2,   -0.1,   -0.0,    0.1,    0.2,    0.3,    0.3,    0.3,    0.3,    0.3,    0.2,    0.2,    0.1,    0.2,    0.1,    0.2,    0.3,    0.2,   -0.1,   -0.3,   -0.2,   -0.1,   -0.3,   -0.1,   -0.2,   -0.5,   -1.0,   -0.9,   -0.9,   -0.8,   -0.7,   -1.1,   -1.3,   -1.3,   -1.4,   -1.1,   -1.0,   -0.7,   -0.5,   -0.2,   -0.1,    0.1,   -0.1,   -0.1,   -0.3,  999.0,   -0.3,   -0.7,  999.0,  999.0,  999.0,  999.0
2002/07/13 15:50,  999.0,   -2.6,   -2.1,   -1.9,   -1.8,   -1.7,   -2.9,   -2.5,   -2.7,   -2.7,   -2.6,   -2.2,   -2.5,   -2.0,   -2.0,   -2.0,   -1.8,   -1.8,   -1.5,   -2.1,   -2.3,   -2.1,   -2.2,   -2.2,   -2.0,   -3.8,   -3.4,   -3.7,   -3.3,   -2.4,   -1.7,   -1.7,   -1.6,   -2.2,   -2.3,   -2.3,   -2.4,   -2.9,   -2.7,   -2.8,   -2.8,   -3.0,   -2.4,   -2.1,   -1.7,   -1.7,   -1.4,   -1.7,   -1.4,   -1.1,   -1.0,   -1.0,   -0.8,   -0.7,   -0.7,   -0.6,  999.0,  999.0,  999.0,  999.0,  999.0,  999.0,  999.0
2002/07/13 16:00,  999.0,   -4.2,   -4.0,   -4.3,   -4.0,   -4.2,   -4.1,   -4.6,   -4.8,   -4.6,   -4.6,   -4.1,   -4.0,   -4.0,   -3.9,   -3.9,   -3.8,   -3.4,   -3.5,   -3.2,   -3.2,   -3.6,   -3.1,   -3.6,   -3.7,   -4.4,   -6.3,   -5.6,   -4.9,   -3.6,   -3.3,   -2.9,   -2.7,   -2.6,   -3.7,   -2.8,   -2.8,   -2.6,   -3.4,   -3.3,   -3.0,   -3.1,   -3.1,   -2.9,   -2.7,   -2.3,   -2.0,   -1.7,   -1.4,   -1.4,   -1.4,   -1.1,   -0.6,   -0.2,   -0.1,   -0.4,   -0.3,   -0.2,    0.2,   -0.6,   -0.5,   -0.2,    0.7
2002/07/13 16:10,  999.0,   -1.8,   -2.9,   -2.9,   -3.3,   -3.2,   -3.1,   -2.9,   -2.9,   -3.1,   -2.9,   -2.9,   -3.1,   -3.1,   -3.1,   -3.1,   -2.7,   -3.0,   -3.3,   -3.4,   -3.2,   -3.5,   -3.4,   -3.4,   -3.4,   -3.6,   -3.7,   -4.6,   -2.1,   -1.7,   -1.7,   -1.6,   -1.6,   -1.6,   -1.4,   -1.4,   -1.3,   -1.1,   -1.2,   -1.1,   -1.0,   -1.0,   -1.2,   -1.0,   -0.9,   -0.7,   -0.7,   -0.7,   -0.7,   -0.7,   -0.8,   -0.6,   -0.4,   -0.1,   -0.1,   -0.3,   -0.7,   -1.2,   -1.4,   -1.2,   -0.9,   -1.8,   -1.4
2002/07/13 16:20,  999.0,   -0.5,   -0.8,   -0.7,   -0.6,   -0.6,   -0.3,   -0.7,   -0.1,    0.1,    0.1,    0.3,    0.5,    0.6,    0.5,    0.6,    0.5,    0.5,    0.5,    0.4,    0.3,    0.4,    0.4,    0.5,    0.5,   -0.0,   -0.1,   -0.0,   -0.3,   -0.3,  999.0,   -0.8,   -1.3,  999.0,   -1.1,   -0.9,   -0.6,   -0.7,   -0.7,   -0.7,   -0.7,   -0.8,   -0.7,   -0.9,   -0.9,   -1.2,   -1.0,   -1.0,   -0.8,   -0.7,   -0.5,   -0.5,   -0.5,  999.0,  999.0,  999.0,  999.0,  999.0,  999.0,  999.0,  999.0,  999.0,  999.0
2002/07/13 16:30,  999.0,   -0.7,   -0.7,   -0.5,   -0.4,   -0.4,   -0.3,   -0.2,    0.0,    0.2,    0.3,    0.5,    0.5,    0.5,    0.5,    0.5,    0.5,    0.5,    0.5,    0.4,    0.3,    0.3,    0.3,    0.4,    0.5,    0.6,    0.5,    0.3,   -1.2,   -1.3,   -0.6,   -1.1,   -1.4,   -1.5,   -1.3,   -1.0,   -0.9,   -1.0,   -0.9,   -0.8,   -0.7,   -0.5,   -0.7,   -0.5,   -0.7,   -0.7,   -0.5,   -0.4,   -0.2,   -0.2,    0.1,    0.3,   -0.2,   -0.1,  999.0,  999.0,  999.0,  999.0,  999.0,  999.0,  999.0,  999.0,  999.0
2002/07/13 16:40,  999.0,   -0.3,   -0.8,   -0.8,   -0.6,   -0.5,   -0.3,   -0.2,   -0.1,    0.0,    0.1,    0.2,    0.2,    0.3,    0.4,    0.5,    0.2,    0.2,    0.4,    0.0,    0.0,   -0.1,   -0.1,   -0.1,    0.3,    0.2,    0.1,   -0.2,   -0.7,   -2.0,   -1.2,   -1.4,   -1.4,   -1.5,   -1.7,   -1.3,   -1.2,   -1.0,   -1.1,   -0.9,   -0.8,   -0.6,   -0.9,   -0.9,   -0.8,   -0.8,   -0.7,   -0.6,   -0.4,   -0.3,   -0.1,   -0.7,   -1.4,  999.0,  999.0,  999.0,  999.0,  999.0,  999.0,  999.0,  999.0,  999.0,  999.0
2002/07/13 16:50,  999.0,   -0.2,   -1.0,   -1.0,   -0.8,   -0.7,   -0.6,   -0.4,   -0.2,   -0.0,    0.2,    0.2,    0.3,    0.3,    0.4,    0.5,    0.5,    0.4,    0.5,    0.5,    0.5,    0.4,    0.4,  999.0,    0.4,   -0.9,   -0.3,   -1.2,   -1.5,   -0.7,   -1.5,   -1.4,   -1.6,   -1.0,   -0.8,   -0.9,   -0.9,   -0.9,   -0.6,   -0.9,   -0.6,   -0.6,   -0.7,   -0.8,   -0.8,   -0.9,   -0.5,   -0.5,   -0.4,   -0.3,   -0.7,   -1.0,  999.0,  999.0,  999.0,   -0.8,  999.0,  999.0,  999.0,  999.0,  999.0,  999.0,  999.0
2002/07/13 17:00,  999.0,   -1.3,   -1.5,   -1.1,   -0.9,   -0.7,   -0.6,   -0.4,   -0.3,   -0.1,   -0.0,    0.1,    0.1,    0.2,    0.4,    0.4,    0.1,   -1.2,   -1.0,   -1.4,   -2.0,   -2.1,   -2.6,   -2.8,   -3.1,   -2.9,   -4.7,   -3.9,   -2.4,   -2.3,   -2.1,   -1.8,   -1.6,   -1.7,   -1.8,   -2.1,   -2.0,   -2.0,   -1.9,   -1.8,   -1.6,   -1.4,   -1.2,   -1.0,   -0.8,   -0.8,   -0.8,   -1.1,   -0.8,   -1.0,   -1.0,   -1.3,   -1.3,   -1.4,   -0.8,   -1.1,   -0.9,   -0.9,   -1.0,   -0.9,  999.0,  999.0,  999.0
2002/07/13 17:10,  999.0,   -1.4,   -1.3,   -0.6,   -0.4,   -0.8,   -0.7,   -0.5,   -0.6,   -0.5,   -0.4,   -0.4,   -0.4,   -0.4,   -0.3,   -0.3,   -0.2,   -0.6,   -0.4,   -0.4,   -0.8,   -0.8,   -0.7,  999.0,   -1.9,   -1.1,   -1.1,   -0.5,   -0.8,  999.0,   -0.9,   -0.8,   -1.1,   -0.4,   -0.4,   -0.4,   -0.6,   -0.9,   -0.9,   -1.2,   -0.8,   -0.7,   -0.6,   -0.7,   -0.9,   -0.5,   -0.7,   -0.5,  999.0,   -0.2,   -0.2,   -0.6,   -0.5,   -0.6,   -0.6,   -0.5,   -0.4,  999.0,   -0.4,  999.0,  999.0,  999.0,  999.0
2002/07/13 17:20,  999.0,   -1.0,   -1.0,   -0.8,   -0.7,   -0.6,   -0.5,   -0.4,   -0.4,   -0.4,   -0.3,   -0.2,   -0.2,   -0.1,    0.0,    0.0,   -0.0,    0.0,   -0.0,    0.0,    0.1,    0.1,    0.1,    0.4,  999.0,    0.2,    0.3,    0.2,    0.2,    0.4,    0.3,  999.0,   -0.1,  999.0,  999.0,   -0.2,   -0.2,   -0.2,   -0.2,   -0.3,   -0.4,   -0.5,   -0.3,   -0.6,   -1.0,   -0.9,   -1.0,   -0.6,   -0.6,   -0.2,   -0.1,   -0.2,   -0.2,   -0.3,   -0.3,  999.0,   -0.0,  999.0,  999.0,  999.0,  999.0,  999.0,  999.0
2002/07/13 17:30,  999.0,   -1.1,   -1.0,   -0.7,   -0.5,   -0.4,   -0.3,   -0.2,   -0.3,   -0.0,   -0.0,    0.1,    0.1,    0.3,    0.4,    0.4,    0.3,  999.0,  999.0,    0.2,    0.2,    0.1,    0.1,    0.3,    0.5,  999.0,   -0.6,    0.5,   -0.7,   -1.3,   -1.0,   -0.6,   -0.9,   -1.4,   -1.5,   -1.2,   -1.2,   -1.6,   -1.1,   -1.2,   -1.6,   -1.6,   -1.1,   -1.7,   -1.7,   -1.6,   -1.2,   -0.9,   -0.8,   -0.6,   -0.5,   -1.0,   -0.6,   -0.6,   -0.5,   -0.6,   -1.2,   -1.0,   -1.7,   -1.0,  999.0,  999.0,  999.0
2002/07/13 17:40,  999.0,   -0.1,   -0.7,   -0.5,   -0.2,   -0.2,   -0.1,   -0.0,   -0.1,    0.1,    0.2,    0.3,    0.3,    0.4,    0.3,    0.4,    0.2,  999.0,    0.3,    0.1,    0.1,    0.1,  999.0,    0.2,   -0.5,   -1.0,   -0.8,   -0.5,   -1.3,   -2.0,   -1.4,   -1.3,   -1.3,   -1.3,   -1.4,   -1.5,   -1.6,   -1.5,   -1.4,   -1.5,   -1.7,   -1.6,   -1.3,   -1.3,   -1.4,   -1.3,   -0.9,   -0.8,   -0.7,   -0.5,   -0.5,   -0.5,   -0.3,   -0.6,   -1.1,   -0.9,   -0.6,  999.0,  999.0,  999.0,  999.0,  999.0,  999.0
2002/07/13 17:50,  999.0,   -0.1,   -0.7,   -0.6,   -0.4,   -0.4,   -0.3,   -0.3,   -0.2,   -0.1,   -0.1,   -0.1,   -0.0,   -0.9,   -0.8,   -1.3,   -1.2,   -1.8,   -3.9,   -2.5,   -1.6,   -1.2,   -1.5,   -1.4,   -1.3,   -1.4,   -1.3,   -1.3,   -1.5,   -1.3,   -1.1,   -0.6,   -0.9,   -1.0,   -1.0,   -1.1,   -1.0,   -1.0,   -1.1,   -1.1,   -1.3,   -1.3,   -1.3,   -1.2,   -1.0,   -1.1,   -1.2,   -1.1,   -1.2,   -1.0,   -1.0,   -1.0,   -0.7,   -0.5,   -0.7,   -1.3,   -1.2,   -0.5,   -0.3,   -0.1,  999.0,  999.0,  999.0
2002/07/13 18:00,  999.0,   -0.5,   -0.6,   -0.5,   -0.5,   -0.5,   -0.4,   -0.2,   -0.2,   -0.1,   -0.1,   -0.1,   -0.1,   -0.1,   -0.1,   -0.2,   -0.0,  999.0,  999.0,   -0.1,   -0.1,   -0.0,    0.2,    0.3,    0.3,    0.3,    0.3,    0.3,    0.4,    0.3,    0.6,   -0.0,   -0.1,   -0.2,   -0.5,   -0.4,   -0.5,   -0.3,   -0.4,   -0.1,   -0.0,   -0.0,   -0.0,    0.0,   -0.1,   -0.1,   -0.4,  999.0,   -0.6,   -0.7,   -0.5,  999.0,   -0.5,   -0.2,   -0.1,  999.0,  999.0,  999.0,  999.0,  999.0,  999.0,  999.0,  999.0
2002/07/13 18:10,  999.0,   -0.1,   -0.2,   -0.1,   -0.2,   -0.3,   -0.2,   -0.1,   -0.1,   -0.1,   -0.1,   -0.0,    0.0,    0.0,   -0.0,   -0.0,   -0.2,  999.0,  999.0,    0.1,   -0.0,   -0.1,    0.2,    0.3,    0.4,    0.0,    0.4,    0.1,    0.4,    0.1,   -0.4,   -0.5,   -0.4,   -0.8,   -0.8,   -0.7,   -0.8,   -0.9,   -0.6,   -0.6,   -0.3,   -0.1,   -0.3,   -0.2,   -0.2,   -0.3,   -0.4,   -0.2,   -0.3,   -0.4,  999.0,   -0.4,   -0.2,   -0.2,    0.0,    0.1,  999.0,  999.0,  999.0,  999.0,  999.0,  999.0,  999.0
2002/07/13 18:20,  999.0,   -0.4,   -0.5,   -0.2,   -1.2,   -1.0,   -1.8,   -2.1,   -2.2,   -2.3,   -2.1,   -2.2,   -2.2,   -2.2,   -2.2,   -2.2,   -2.9,   -3.4,   -3.4,   -3.0,   -3.3,   -3.2,   -3.1,   -3.0,   -3.0,   -3.1,   -2.5,   -1.8,   -1.7,   -1.4,   -1.3,   -1.3,   -1.1,   -1.2,   -1.3,   -1.3,   -1.2,   -1.1,   -1.1,   -1.0,   -1.0,   -1.0,   -1.1,   -1.0,   -0.9,   -0.7,   -0.5,   -0.5,   -0.3,    0.2,    0.2,   -0.2,   -0.1,   -0.1,    0.1,   -0.1,   -0.2,  999.0,  999.0,  999.0,  999.0,  999.0,   -0.6
2002/07/13 18:30,  999.0,   -1.2,   -3.9,   -3.4,   -3.5,   -2.5,   -2.7,   -2.6,   -3.1,   -3.0,   -2.4,   -2.3,   -2.1,   -2.3,   -2.5,   -2.5,   -2.5,   -6.3,   -6.1,   -3.2,   -3.3,   -2.7,   -2.7,   -2.4,   -2.4,   -2.1,   -1.8,   -2.4,   -2.6,   -1.8,   -1.5,   -1.4,   -1.3,   -1.3,   -1.5,   -1.5,   -1.6,   -1.5,   -1.6,   -1.2,   -1.1,   -0.8,   -0.9,   -0.8,   -0.8,   -0.9,   -0.6,   -0.4,   -0.3,   -0.5,   -0.4,   -0.4,   -0.3,  999.0,   -0.5,  999.0,  999.0,  999.0,  999.0,  999.0,  999.0,  999.0,   -1.3
2002/07/13 18:40,  999.0,   -0.2,   -0.3,   -0.8,   -0.5,   -0.5,   -0.4,   -0.2,   -0.2,   -0.1,    0.1,    0.1,    0.1,    0.2,    0.1,    0.1,    0.1,  999.0,   -2.7,   -2.6,   -3.7,   -1.8,   -1.3,   -1.1,   -1.5,   -2.1,   -2.6,   -2.1,   -2.0,   -1.7,   -1.7,   -1.9,   -2.2,   -2.3,   -2.3,   -2.3,   -2.3,   -2.1,   -1.9,   -1.8,   -1.4,   -1.1,   -0.9,   -0.8,   -0.7,   -0.6,   -0.5,   -0.5,   -0.7,  999.0,   -0.2,  999.0,  999.0,   -0.1,   -0.0,    0.1,    0.1,  999.0,   -0.0,  999.0,  999.0,  999.0,  999.0
2002/07/13 18:50,  999.0,   -0.1,   -0.4,   -0.4,   -0.4,   -0.5,   -0.5,   -1.7,   -1.5,   -1.7,   -2.7,   -2.7,   -2.7,   -3.5,   -3.6,   -2.7,   -7.4,   -7.3,   -7.2,   -7.2,   -6.6,   -6.5,   -5.6,   -6.2,   -6.1,   -5.6,   -4.6,   -3.8,   -4.1,   -4.7,   -4.0,   -4.1,   -3.7,   -3.8,   -3.6,   -3.7,   -3.7,   -3.5,   -3.3,   -3.0,   -2.5,   -2.5,   -2.0,   -1.7,   -1.7,   -1.0,   -0.5,   -0.5,   -0.8,   -0.6,   -0.2,   -0.1,  999.0,    0.1,    0.2,  999.0,  999.0,  999.0,  999.0,  999.0,  999.0,  999.0,  999.0
2002/07/13 19:00,  999.0,   -1.4,   -0.9,   -0.2,   -1.2,   -1.2,   -1.1,   -1.0,   -1.0,   -0.8,   -0.7,   -0.5,   -0.6,   -0.7,   -0.6,   -0.5,   -0.8,  999.0,   -1.4,   -2.5,   -2.4,   -2.5,   -2.4,   -2.4,   -2.9,   -3.6,   -2.6,   -2.3,   -2.4,   -2.7,   -3.1,   -3.1,   -3.2,   -3.2,   -3.3,   -3.2,   -3.3,   -2.9,   -2.8,   -2.2,   -1.9,   -2.0,   -1.9,   -1.9,   -2.0,   -1.5,   -1.4,   -1.4,   -1.2,  999.0,   -0.4,   -0.2,   -0.3,    0.0,    0.4,  999.0,  999.0,  999.0,  999.0,  999.0,    0.0,    0.1,  999.0
2002/07/13 19:10,  999.0,   -2.5,   -3.2,   -2.7,   -2.7,   -2.7,   -4.4,   -3.9,   -4.5,   -4.1,   -3.5,   -4.6,   -4.8,   -4.0,   -5.2,   -5.1,   -4.9,   -4.3,   -4.3,   -3.7,   -3.7,   -3.7,   -3.6,   -3.7,   -3.4,   -2.6,   -2.7,   -2.6,   -2.5,   -2.4,   -2.2,   -2.1,   -2.1,   -2.2,   -2.2,   -2.1,   -1.8,   -1.5,   -1.4,   -1.2,   -1.1,   -0.9,   -0.8,   -0.7,   -0.5,   -0.4,   -0.2,   -0.0,    0.2,    0.4,    0.3,    0.2,    0.2,    0.3,    0.3,    0.9,    1.0,    1.6,  999.0,    1.1,    1.0,  999.0,  999.0
2002/07/13 19:20,  999.0,   -0.6,   -0.4,   -1.6,   -1.6,   -1.6,   -2.0,   -2.6,   -3.2,   -3.1,   -3.4,   -3.1,   -3.5,   -4.7,   -4.6,   -4.1,   -3.8,   -4.0,   -3.6,   -3.6,   -3.6,   -3.6,   -3.8,   -3.8,   -3.7,   -3.0,   -2.1,   -1.9,   -1.9,   -1.8,   -1.8,   -1.8,   -1.7,   -1.8,   -1.7,   -1.5,   -1.2,   -1.0,   -0.9,   -0.9,   -0.7,   -0.6,   -0.6,   -0.9,   -0.9,   -0.8,   -1.0,   -0.7,   -0.5,   -0.3,   -0.4,  999.0,   -0.3,   -0.3,   -0.5,    0.1,   -0.5,   -0.3,   -0.0,  999.0,  999.0,  999.0,  999.0
2002/07/13 19:30,  999.0,   -2.6,   -2.5,   -2.5,   -2.4,   -2.3,   -2.0,   -1.7,   -1.7,   -1.7,   -1.5,   -1.7,   -1.6,   -1.8,   -1.7,   -2.1,   -1.9,   -3.3,   -2.5,   -3.1,   -4.0,   -2.9,   -2.4,   -2.2,   -2.5,   -3.1,   -3.0,   -2.3,   -2.5,   -2.7,   -2.6,   -2.6,   -2.9,   -3.0,   -2.6,   -2.5,   -2.6,   -2.5,   -2.5,   -2.6,   -2.5,   -2.3,   -2.1,   -2.0,   -1.9,   -1.8,   -1.5,   -1.2,   -0.7,   -0.5,   -0.2,    0.2,    0.5,    0.7,    0.7,    0.7,    0.5,    0.6,    0.9,    1.2,    1.7,    1.5,    1.5
2002/07/13 19:40,  999.0,   -0.4,   -0.5,   -0.5,   -0.5,   -0.5,   -0.4,   -0.3,   -0.6,   -0.6,   -0.6,   -1.1,   -0.7,   -0.6,   -0.7,   -0.7,   -1.6,   -0.9,   -0.7,   -2.5,   -2.7,   -2.2,   -1.8,   -1.4,   -1.1,   -1.8,   -1.4,   -1.1,   -0.6,   -1.3,   -2.4,   -1.5,   -1.8,   -1.5,   -1.7,   -1.9,   -2.0,   -1.8,   -1.7,   -1.7,   -1.8,   -1.6,   -1.9,   -1.6,   -1.9,   -1.4,   -1.0,   -0.7,   -0.5,   -0.3,   -0.3,    0.1,  999.0,   -0.3,   -0.0,    0.2,  999.0,  999.0,    0.2,    0.2,    0.1,  999.0,  999.0
2002/07/13 19:50,  999.0,   -0.2,   -0.6,   -0.8,   -1.6,   -1.6,   -1.5,   -1.6,   -1.2,   -2.3,   -2.2,   -3.1,   -3.2,   -3.2,   -3.0,   -3.0,   -3.8,   -3.8,   -4.4,   -3.5,   -5.2,   -5.6,   -5.6,   -4.3,   -3.5,   -3.0,   -2.9,   -2.0,   -2.4,   -2.3,   -2.3,   -2.0,   -2.1,   -2.0,   -2.1,   -2.0,   -1.8,   -1.7,   -1.8,   -1.8,   -1.5,   -1.9,   -1.8,   -1.8,   -1.8,   -1.6,   -1.3,   -1.4,   -1.2,   -1.0,   -0.7,   -0.5,   -0.1,   -0.3,    0.2,    0.1,  999.0,    0.4,   -0.1,  999.0,  999.0,  999.0,  999.0
2002/07/13 20:00,  999.0,   -0.6,   -0.4,   -0.4,   -0.4,   -0.4,   -0.4,   -1.2,   -1.0,   -0.1,   -0.1,   -0.1,   -0.2,   -0.2,   -0.1,   -0.1,   -0.0,   -2.7,   -2.0,   -2.6,   -0.2,   -0.1,   -1.3,   -2.1,   -2.6,   -3.6,   -3.7,   -3.4,   -3.3,   -3.2,   -3.5,   -2.7,   -3.1,   -2.9,   -2.6,   -2.8,   -2.1,   -2.0,   -1.9,   -1.6,   -1.3,   -1.2,   -1.0,   -1.0,   -0.8,   -0.8,   -0.9,   -0.9,   -0.7,   -0.4,   -0.4,   -0.1,  999.0,   -0.1,  999.0,   -0.3,   -0.5,    0.1,    0.6,  999.0,  999.0,  999.0,  999.0
2002/07/13 20:10,  999.0,   -0.2,   -0.3,   -0.3,   -0.3,   -0.3,   -0.1,   -0.1,   -0.1,    0.0,   -0.0,   -0.0,    0.0,   -0.0,   -0.0,   -0.0,    0.0,   -0.0,    0.0,    0.0,  999.0,  999.0,  999.0,  999.0,    0.0,    0.0,    0.1,   -0.1,   -0.1,   -0.0,  999.0,    0.0,   -0.1,   -0.5,    0.0,   -0.1,   -1.1,   -0.8,   -0.8,   -0.4,   -0.3,   -0.4,   -0.4,   -0.4,   -0.5,   -0.6,   -0.6,   -0.6,   -0.5,   -0.3,   -0.1,    0.1,   -0.1,    0.1,    0.3,  999.0,  999.0,  999.0,    0.1,  999.0,  999.0,    0.3,  999.0
2002/07/13 20:20,  999.0,   -0.7,   -0.6,   -0.3,   -0.2,   -0.2,   -0.0,    0.2,    0.2,    0.2,    0.2,    0.2,    0.2,    0.2,    0.1,    0.2,    0.3,    0.2,    0.0,   -0.1,  999.0,   -0.0,  999.0,  999.0,   -0.0,   -0.0,   -0.1,   -0.1,   -0.1,   -0.1,    0.1,  999.0,    0.2,    0.2,  999.0,    0.5,    0.5,  999.0,  999.0,    0.1,   -0.1,   -0.0,   -0.2,   -0.3,   -0.3,   -0.2,   -0.4,   -0.2,    0.0,  999.0,   -0.0,    0.2,    0.5,    0.3,    0.3,  999.0,  999.0,  999.0,  999.0,    0.4,  999.0,  999.0,  999.0
2002/07/13 20:30,  999.0,   -0.1,   -0.1,   -0.2,   -0.1,   -0.2,   -0.0,    0.0,   -0.0,   -0.0,    0.0,    0.0,    0.0,    0.0,    0.0,   -0.1,    0.1,   -0.0,   -0.0,    0.0,   -0.1,  999.0,  999.0,  999.0,  999.0,    0.2,    0.3,    0.4,    0.4,    0.4,    0.5,  999.0,  999.0,    0.2,  999.0,  999.0,    0.6,  999.0,  999.0,  999.0,    0.2,    0.2,  999.0,  999.0,  999.0,  999.0,  999.0,    0.0,  999.0,  999.0,  999.0,  999.0,    0.1,    0.1,    0.1,  999.0,  999.0,  999.0,  999.0,  999.0,  999.0,  999.0,  999.0
2002/07/13 20:40,  999.0,   -0.3,   -0.4,   -0.4,   -0.4,   -0.2,   -0.1,   -0.1,   -0.1,   -0.1,   -0.1,    0.1,    0.1,    0.1,    0.0,   -0.0,    0.0,   -0.0,    0.0,   -0.0,    0.0,    0.1,  999.0,   -0.0,    0.0,    0.2,    0.2,    0.3,    0.3,    0.1,    0.3,  999.0,  999.0,    0.4,  999.0,    0.3,    0.5,  999.0,  999.0,    0.2,    0.2,   -0.0,   -0.2,   -0.5,   -0.5,    0.0,  999.0,  999.0,  999.0,  999.0,  999.0,  999.0,    0.2,  999.0,  999.0,  999.0,  999.0,  999.0,  999.0,  999.0,  999.0,  999.0,   -0.8
2002/07/13 20:50,  999.0,   -0.7,   -0.6,   -0.5,   -0.3,   -0.0,   -0.1,   -0.0,    0.0,   -0.0,   -0.0,    0.0,    0.1,    0.2,    0.2,    0.2,    0.2,    0.3,    0.2,    0.1,  999.0,    0.1,    0.4,    0.4,    0.3,    0.4,    0.4,    0.3,    0.3,  999.0,    0.4,    0.3,  999.0,  999.0,  999.0,  999.0,    0.6,    0.3,  999.0,    0.2,    0.0,   -0.2,   -0.4,   -0.4,   -0.2,   -0.2,   -0.2,  999.0,  999.0,  999.0,  999.0,   -0.0,  999.0,  999.0,  999.0,  999.0,  999.0,  999.0,  999.0,  999.0,  999.0,  999.0,  999.0
2002/07/13 21:00,  999.0,   -0.2,   -0.7,   -0.7,   -0.3,    0.0,    0.1,    0.2,    0.2,    0.2,    0.4,    0.4,    0.6,    0.5,    0.5,    0.4,    0.5,    0.3,   -0.0,    0.1,  999.0,  999.0,  999.0,    0.2,    0.2,    0.2,    0.2,    0.1,    0.3,  999.0,    0.3,    0.3,  999.0,  999.0,    0.5,    0.3,    0.3,    0.2,   -0.3,  999.0,   -0.0,   -0.1,   -0.1,   -0.2,   -0.1,   -0.0,    0.9,    1.0,    1.2,    0.5,  999.0,    0.2,  999.0,  999.0,  999.0,  999.0,  999.0,  999.0,  999.0,  999.0,  999.0,  999.0,  999.0
2002/07/13 21:10,  999.0,   -0.5,   -0.6,   -0.6,   -0.4,   -0.3,   -0.1,    0.0,    0.0,    0.0,    0.1,    0.1,    0.1,    0.1,    0.1,    0.1,    0.1,  999.0,   -0.0,   -0.1,  999.0,    0.2,    0.1,    0.2,    0.2,    0.2,    0.2,    0.1,    0.3,    0.2,    0.2,    0.3,  999.0,  999.0,    0.6,    0.5,  999.0,    0.4,  999.0,  999.0,    0.1,    0.3,    0.2,    0.4,    0.2,    0.4,  999.0,  999.0,  999.0,  999.0,  999.0,   -0.1,    0.1,  999.0,  999.0,  999.0,  999.0,  999.0,  999.0,  999.0,  999.0,  999.0,   -1.0
2002/07/13 21:20,  999.0,   -0.9,   -0.8,   -0.5,   -0.5,   -0.2,   -0.1,   -0.2,   -0.1,   -0.0,    0.0,    0.2,    0.2,    0.2,    0.2,    0.1,    0.1,  999.0,    0.2,    0.0,    0.4,    0.2,    0.3,    0.4,    0.3,    0.3,    0.2,    0.2,    0.3,    0.0,    0.1,    0.1,   -0.1,  999.0,  999.0,  999.0,    0.4,    0.3,    0.4,  999.0,   -0.1,   -0.1,   -0.0,   -0.1,   -0.1,   -0.2,   -0.1,   -0.1,   -0.4,   -0.2,   -0.4,   -0.2,   -0.4,   -0.1,  999.0,  999.0,  999.0,    0.0,    0.0,  999.0,  999.0,  999.0,  999.0
2002/07/13 21:30,  999.0,   -0.3,   -0.5,   -0.4,   -0.3,   -0.1,    0.1,    0.1,    0.1,    0.2,    0.5,    0.5,    0.5,    0.5,    0.5,    0.5,    0.4,    0.5,    0.2,    0.2,    0.5,    0.4,    0.3,    0.4,    0.3,    0.2,    0.2,    0.2,    0.2,  999.0,    0.1,    0.0,  999.0,  999.0,  999.0,  999.0,    0.2,    0.4,   -0.0,   -0.2,  999.0,   -0.2,   -0.2,   -0.4,   -0.2,   -0.0,    0.0,   -0.2,   -0.5,   -0.5,   -0.3,   -0.4,   -0.2,   -0.3,  999.0,  999.0,  999.0,   -0.5,   -1.1,   -0.9,   -0.7,   -0.8,  999.0
2002/07/13 21:40,  999.0,    0.1,   -0.5,   -0.4,   -0.2,   -0.1,    0.0,    0.0,   -0.0,    0.0,    0.1,    0.0,    0.1,    0.1,    0.2,    0.2,    0.2,    0.4,  999.0,  999.0,    0.2,    0.3,    0.1,    0.1,   -0.1,    0.0,    0.1,   -0.0,   -0.2,    0.1,   -0.0,   -0.1,    0.0,   -0.2,  999.0,    0.0,    0.0,  999.0,    0.2,    0.2,  999.0,    0.0,   -0.0,   -0.2,   -0.3,   -0.3,   -0.3,   -0.1,    0.2,    0.6,  999.0,    0.7,    0.4,    0.6,  999.0,  999.0,  999.0,  999.0,   -0.6,   -0.4,  999.0,  999.0,  999.0
2002/07/13 21:50,  999.0,   -0.1,   -0.8,   -0.7,   -0.1,    0.1,    0.1,    0.1,    0.3,    0.3,    0.4,    0.4,    0.4,    0.4,    0.5,    0.4,    0.3,    0.3,  999.0,  999.0,  999.0,    0.3,    0.2,    0.2,    0.0,   -0.1,   -0.0,   -0.1,  999.0,   -0.2,   -0.1,   -0.1,   -0.2,   -0.1,   -0.2,   -0.1,   -0.1,   -0.5,   -1.0,   -1.3,   -1.2,   -0.7,   -0.5,   -0.4,   -0.2,   -0.3,   -0.3,   -0.3,   -0.4,   -0.5,   -0.3,   -0.3,   -0.1,    0.1,   -0.0,  999.0,  999.0,  999.0,  999.0,  999.0,  999.0,  999.0,  999.0
2002/07/13 22:00,  999.0,    0.6,   -0.7,   -0.4,   -0.2,   -0.3,   -0.1,   -0.0,    0.0,    0.0,    0.2,    0.2,    0.2,    0.2,    0.1,    0.1,    0.2,   -0.1,   -0.9,   -0.0,    0.1,    0.2,    0.3,    0.2,    0.1,    0.2,    0.1,    0.0,   -0.3,   -0.8,   -1.0,   -1.4,   -0.9,  999.0,   -2.1,   -2.1,   -1.8,   -1.9,   -2.0,   -2.1,   -1.9,   -1.7,   -1.7,   -1.6,   -1.6,   -1.4,   -1.3,   -1.3,   -1.1,   -1.1,   -1.0,   -0.8,   -0.7,   -0.6,   -0.3,  999.0,  999.0,  999.0,  999.0,  999.0,  999.0,  999.0,  999.0
2002/07/13 22:10,  999.0,   -0.0,   -0.9,   -0.5,   -0.6,   -0.6,   -0.5,   -0.5,   -0.4,   -0.4,   -0.3,   -1.4,   -1.3,   -1.3,   -1.3,   -1.2,   -1.2,   -1.5,   -4.2,   -2.8,   -1.0,   -1.9,   -0.9,    0.0,   -2.1,   -1.9,   -4.4,   -3.4,   -3.0,   -3.0,   -3.0,   -2.9,   -2.8,   -2.8,   -2.7,   -2.6,   -2.6,   -2.5,   -2.6,   -2.4,   -2.1,   -2.2,   -2.1,   -1.9,   -1.8,   -1.9,   -1.8,   -1.7,   -1.3,   -1.1,   -0.8,   -0.7,   -0.2,   -0.0,   -0.4,   -0.5,   -0.6,  999.0,  999.0,  999.0,  999.0,  999.0,  999.0
2002/07/13 22:20,  999.0,   -0.7,   -0.8,   -0.5,   -0.5,   -0.5,   -0.4,   -0.4,   -0.3,   -0.3,   -1.0,   -0.9,   -1.6,   -2.4,   -2.3,   -1.8,   -1.6,   -2.2,   -1.5,   -1.5,   -1.3,   -1.1,   -2.1,   -1.6,   -1.7,   -1.7,   -2.1,   -2.1,   -3.2,   -2.3,   -3.2,   -2.7,   -3.0,   -3.2,   -3.1,   -3.0,   -3.0,   -2.9,   -2.7,   -2.5,   -2.3,   -2.1,   -2.1,   -1.9,   -1.8,   -1.8,   -1.7,   -1.5,   -1.2,   -1.0,   -0.9,   -0.9,   -0.5,   -0.2,   -0.0,   -0.1,    0.0,   -0.1,   -0.1,  999.0,  999.0,  999.0,    0.2
2002/07/13 22:30,  999.0,   -0.4,   -1.0,   -0.8,   -0.9,   -0.8,   -0.5,   -0.5,   -0.4,   -0.5,   -0.4,   -0.4,   -0.4,   -0.3,   -0.3,   -0.2,   -0.0,   -0.1,   -0.3,   -0.3,   -0.2,   -0.2,   -0.1,   -0.1,   -0.1,   -0.2,   -0.1,   -0.1,   -0.2,    0.2,   -0.3,   -0.6,   -0.7,  999.0,  999.0,  999.0,   -2.5,   -1.4,   -1.5,   -1.6,   -1.8,   -1.8,   -1.7,   -1.6,   -1.6,   -1.3,   -0.9,   -0.6,   -0.5,   -0.4,   -0.4,   -0.4,   -0.3,   -0.1,   -0.2,    0.2,   -0.3,   -0.2,   -0.4,  999.0,  999.0,  999.0,  999.0
2002/07/13 22:40,  999.0,   -0.2,   -0.9,   -0.9,   -0.8,   -0.9,   -0.8,   -0.7,   -0.5,   -0.4,   -0.5,   -0.3,   -0.3,   -0.4,   -0.3,   -0.3,   -0.1,   -0.1,   -0.1,   -0.1,   -0.1,   -0.2,   -0.2,   -0.0,   -0.3,   -0.3,   -0.3,   -0.1,   -0.1,    0.1,    0.0,    0.1,    0.1,  999.0,  999.0,  999.0,  999.0,   -0.7,   -0.7,   -1.1,   -1.0,   -1.1,   -1.0,   -0.9,   -0.9,   -0.8,   -0.6,   -0.6,   -0.8,   -0.6,   -0.6,   -0.6,   -0.4,   -0.1,   -0.1,  999.0,  999.0,  999.0,  999.0,  999.0,  999.0,  999.0,  999.0
2002/07/13 22:50,  999.0,   -0.7,   -0.7,   -0.7,   -0.5,   -0.6,   -0.4,   -0.2,   -0.2,   -0.1,   -0.1,   -0.1,   -0.1,   -0.2,   -0.4,   -0.3,   -0.4,   -0.4,   -0.4,   -0.1,   -0.3,   -0.3,   -0.2,   -0.7,    0.1,   -0.2,   -0.3,   -0.3,    0.0,   -0.1,  999.0,    0.1,    0.2,    0.1,    0.1,  999.0,  999.0,    0.0,   -0.3,   -0.7,   -1.0,   -1.1,   -1.2,   -1.2,   -1.1,   -1.0,   -0.9,   -0.9,   -0.9,   -0.7,   -0.7,   -0.6,   -0.4,   -0.0,   -0.4,  999.0,  999.0,  999.0,  999.0,  999.0,  999.0,  999.0,  999.0
2002/07/13 23:00,  999.0,   -0.3,   -0.7,   -0.5,   -0.7,   -0.7,   -0.6,   -0.3,   -0.3,   -0.3,   -0.2,   -0.2,   -0.2,   -0.2,   -0.3,   -0.4,   -0.6,   -0.5,   -0.5,   -0.6,   -0.4,   -0.4,   -0.3,   -0.4,   -0.3,   -0.1,   -0.2,   -0.0,   -0.1,    0.1,    0.3,    0.2,    0.4,  999.0,  999.0,    0.3,  999.0,    0.3,    0.3,   -1.1,   -1.2,   -1.1,   -1.1,   -1.0,   -1.1,   -1.0,   -0.9,   -0.9,   -0.7,   -0.3,   -0.5,   -0.4,   -0.0,    0.1,  999.0,  999.0,  999.0,  999.0,  999.0,  999.0,  999.0,  999.0,  999.0
2002/07/13 23:10,  999.0,    0.1,   -1.3,   -1.1,   -1.1,   -1.0,   -0.8,   -0.7,   -0.5,   -0.6,   -0.6,   -0.5,   -0.3,   -0.3,   -0.3,   -0.3,   -0.3,   -0.3,   -0.3,   -0.2,   -0.1,   -0.0,  999.0,  999.0,   -0.1,   -0.0,    0.1,    0.0,    0.1,    0.4,    0.2,    0.2,    0.3,    0.3,  999.0,  999.0,  999.0,  999.0,    0.4,    0.5,    0.5,  999.0,   -0.3,    0.0,   -0.0,    0.2,    0.1,    0.2,    0.4,    0.5,    0.5,    0.4,    0.6,  999.0,  999.0,  999.0,  999.0,  999.0,  999.0,  999.0,  999.0,  999.0,  999.0
2002/07/13 23:20,  999.0,   -0.5,   -1.5,   -1.0,   -1.1,   -1.0,   -0.9,   -0.7,   -0.6,   -0.6,   -0.5,   -0.5,   -0.4,   -0.3,   -0.2,   -0.1,   -0.2,   -0.3,   -0.2,   -0.2,   -0.2,   -0.1,  999.0,  999.0,   -0.2,    0.1,    0.0,   -0.1,    0.1,    0.2,    0.1,    0.2,    0.3,    0.3,  999.0,   -0.1,  999.0,  999.0,  999.0,    0.1,    0.1,    0.1,  999.0,    0.3,    0.2,    0.3,    0.4,    0.4,    0.4,    0.4,    0.3,    0.6,    0.6,  999.0,  999.0,  999.0,   -0.1,  999.0,  999.0,  999.0,  999.0,  999.0,  999.0
2002/07/13 23:30,  999.0,   -0.5,   -1.1,   -0.9,   -1.0,   -1.0,   -0.9,   -0.7,   -0.5,   -0.4,   -0.5,   -0.5,   -0.4,   -0.4,   -0.4,   -0.3,   -0.2,   -0.2,   -0.2,   -0.1,   -0.1,   -0.2,   -0.0,   -0.0,  999.0,   -0.1,   -0.0,    0.1,   -0.0,    0.0,   -0.1,   -0.1,   -0.0,    0.0,   -0.2,   -0.0,  999.0,  999.0,   -0.0,   -0.4,   -0.3,   -0.2,   -0.3,   -0.1,    0.2,   -0.0,    0.3,    0.2,   -0.2,    0.3,    0.4,    0.3,    0.3,    0.5,  999.0,  999.0,  999.0,  999.0,  999.0,  999.0,  999.0,  999.0,  999.0
2002/07/13 23:40,  999.0,   -0.8,   -0.6,   -0.8,   -0.8,   -0.7,   -0.5,   -0.3,   -0.3,   -0.3,   -0.3,   -0.3,   -0.2,   -0.2,   -0.2,   -0.2,   -0.1,   -0.1,    0.0,    0.0,    0.2,    0.2,    0.3,    0.4,    0.5,    0.4,    0.2,    0.0,    0.1,   -0.0,    0.0,   -0.0,    0.1,   -0.1,  999.0,   -0.1,  999.0,  999.0,  999.0,   -0.4,   -0.3,   -0.4,   -0.2,   -0.2,   -0.2,  999.0,  999.0,    0.0,   -0.1,   -0.0,  999.0,    0.2,    0.1,  999.0,  999.0,    0.2,  999.0,  999.0,  999.0,  999.0,  999.0,  999.0,  999.0
2002/07/13 23:50,  999.0,   -0.5,   -0.3,   -0.7,   -0.7,   -0.6,   -0.4,   -0.2,   -0.3,   -0.3,   -0.2,   -0.2,   -0.2,   -0.2,   -0.2,   -0.2,   -0.1,    0.1,    0.2,    0.1,    0.3,    0.3,    0.2,    0.3,    0.2,    0.1,   -0.1,   -0.1,   -0.1,    0.0,   -0.0,    0.0,   -0.0,    0.1,  999.0,  999.0,   -0.1,  999.0,    0.1,    0.2,    0.3,  999.0,  999.0,    0.2,  999.0,  999.0,  999.0,    0.0,   -0.2,   -0.1,    0.1,    0.1,   -0.0,  999.0,    0.0,   -0.1,  999.0,  999.0,  999.0,  999.0,  999.0,  999.0,  999.0
